Time,TemperatureF,DewpointF,PressureIn,WindDirection,WindDirectionDegrees,WindSpeedMPH,WindSpeedGustMPH,Humidity,HourlyPrecipIn,Conditions,Clouds,dailyrainin,SoftwareType,DateUTC
2013-06-03 00:03:00,75.7,57.9,30.04,NNW,337,28.6,86.1,54,0.00,,,0.00,WUHU21623XXSP,2013-06-03 05:03:00,
2013-06-03 00:04:00,75.7,57.9,30.04,NNW,337,28.6,86.1,54,0.00,,,0.00,WUHU21623XXSP,2013-06-03 05:04:00,
2013-06-03 00:10:00,75.4,57.6,30.04,NNW,337,28.6,28.6,54,0.00,,,0.00,WUHU21623XXSP,2013-06-03 05:10:00,
2013-06-03 00:11:00,75.4,57.6,30.04,NNW,337,28.6,28.6,54,0.00,,,0.00,WUHU21623XXSP,2013-06-03 05:11:00,
2013-06-03 00:12:00,75.4,57.6,30.04,NNW,337,28.6,28.6,54,0.00,,,0.00,WUHU21623XXSP,2013-06-03 05:12:00,
2013-06-03 00:15:00,75.0,57.7,30.05,NW,315,28.9,28.9,55,0.00,,,0.00,WUHU21623XXSP,2013-06-03 05:15:00,
2013-06-03 00:16:00,75.0,57.7,30.05,NW,315,28.9,28.9,55,0.00,,,0.00,WUHU21623XXSP,2013-06-03 05:16:00,
2013-06-03 00:17:00,75.0,57.7,30.04,NNW,337,28.6,28.9,55,0.00,,,0.00,WUHU21623XXSP,2013-06-03 05:17:00,
2013-06-03 00:20:00,75.0,57.7,30.05,NW,315,28.9,28.9,55,0.00,,,0.00,WUHU21623XXSP,2013-06-03 05:20:00,
2013-06-03 00:22:00,75.0,57.7,30.05,NW,315,28.9,28.9,55,0.00,,,0.00,WUHU21623XXSP,2013-06-03 05:22:00,
2013-06-03 00:26:00,75.0,57.7,30.05,NW,315,0.2,28.9,55,0.00,,,0.00,WUHU21623XXSP,2013-06-03 05:26:00,
2013-06-03 00:27:00,75.0,57.7,30.05,NW,315,0.2,28.9,55,0.00,,,0.00,WUHU21623XXSP,2013-06-03 05:27:00,
2013-06-03 00:28:00,75.0,57.7,30.05,NW,315,0.2,28.9,55,0.00,,,0.00,WUHU21623XXSP,2013-06-03 05:28:00,
2013-06-03 00:31:00,74.8,57.6,30.06,NNW,337,28.6,28.6,55,0.00,,,0.00,WUHU21623XXSP,2013-06-03 05:31:00,
2013-06-03 00:32:00,74.8,57.6,30.06,NNW,337,28.6,28.6,55,0.00,,,0.00,WUHU21623XXSP,2013-06-03 05:32:00,
2013-06-03 00:33:00,74.7,57.4,30.06,NW,315,28.9,53.9,55,0.00,,,0.00,WUHU21623XXSP,2013-06-03 05:33:00,
2013-06-03 00:36:00,74.7,57.4,30.06,NW,315,28.9,53.9,55,0.00,,,0.00,WUHU21623XXSP,2013-06-03 05:36:00,
2013-06-03 00:37:00,74.7,57.4,30.06,NNW,337,28.6,53.9,55,0.00,,,0.00,WUHU21623XXSP,2013-06-03 05:37:00,
2013-06-03 00:38:00,74.7,57.4,30.06,NNW,337,28.6,53.9,55,0.00,,,0.00,WUHU21623XXSP,2013-06-03 05:38:00,
2013-06-03 00:41:00,74.5,57.7,30.06,North,0,53.9,53.9,56,0.00,,,0.00,WUHU21623XXSP,2013-06-03 05:41:00,
2013-06-03 00:42:00,74.5,57.7,30.06,NW,315,0.2,53.9,56,0.00,,,0.00,WUHU21623XXSP,2013-06-03 05:42:00,
2013-06-03 00:43:00,74.5,57.7,30.06,NW,315,0.2,53.9,56,0.00,,,0.00,WUHU21623XXSP,2013-06-03 05:43:00,
2013-06-03 00:44:00,74.5,57.7,30.06,NW,315,0.2,53.9,56,0.00,,,0.00,WUHU21623XXSP,2013-06-03 05:44:00,
2013-06-03 00:47:00,74.5,57.7,30.06,NW,315,0.2,53.9,56,0.00,,,0.00,WUHU21623XXSP,2013-06-03 05:47:00,
2013-06-03 00:48:00,74.5,57.7,30.06,NW,315,0.2,53.9,56,0.00,,,0.00,WUHU21623XXSP,2013-06-03 05:48:00,
2013-06-03 00:49:00,74.5,57.7,30.06,NW,315,0.2,53.9,56,0.00,,,0.00,WUHU21623XXSP,2013-06-03 05:49:00,
2013-06-03 00:55:00,74.3,57.5,30.06,NW,315,28.9,28.9,56,0.00,,,0.00,WUHU21623XXSP,2013-06-03 05:55:00,
2013-06-03 01:00:00,74.3,57.5,30.05,NNW,337,86.1,86.1,56,0.00,,,0.00,WUHU21623XXSP,2013-06-03 06:00:00,
2013-06-03 01:01:00,74.3,57.5,30.05,NNW,337,86.1,86.1,56,0.00,,,0.00,WUHU21623XXSP,2013-06-03 06:01:00,
2013-06-03 01:02:00,74.3,57.5,30.05,NNW,337,86.1,86.1,56,0.00,,,0.00,WUHU21623XXSP,2013-06-03 06:02:00,
2013-06-03 01:05:00,74.3,57.5,30.05,NNW,337,86.1,86.1,56,0.00,,,0.00,WUHU21623XXSP,2013-06-03 06:05:00,
2013-06-03 01:10:00,74.1,57.3,30.05,NW,315,43.2,43.2,56,0.00,,,0.00,WUHU21623XXSP,2013-06-03 06:10:00,
2013-06-03 01:11:00,74.1,57.3,30.06,NW,315,43.2,43.2,56,0.00,,,0.00,WUHU21623XXSP,2013-06-03 06:11:00,
2013-06-03 01:15:00,74.1,57.3,30.06,NW,315,0.2,86.1,56,0.00,,,0.00,WUHU21623XXSP,2013-06-03 06:15:00,
2013-06-03 01:16:00,74.1,57.3,30.06,NW,315,0.2,86.1,56,0.00,,,0.00,WUHU21623XXSP,2013-06-03 06:16:00,
2013-06-03 01:17:00,73.9,57.2,30.06,NNW,337,86.1,86.1,56,0.00,,,0.00,WUHU21623XXSP,2013-06-03 06:17:00,
2013-06-03 01:20:00,74.1,57.3,30.06,NNW,337,86.1,86.1,56,0.00,,,0.00,WUHU21623XXSP,2013-06-03 06:20:00,
2013-06-03 01:21:00,74.1,57.3,30.06,NNW,337,86.1,86.1,56,0.00,,,0.00,WUHU21623XXSP,2013-06-03 06:21:00,
2013-06-03 01:22:00,73.9,57.2,30.06,NNW,337,86.1,86.1,56,0.00,,,0.00,WUHU21623XXSP,2013-06-03 06:22:00,
2013-06-03 01:26:00,73.9,57.2,30.06,NNW,337,86.1,86.1,56,0.00,,,0.00,WUHU21623XXSP,2013-06-03 06:26:00,
2013-06-03 01:27:00,73.9,57.2,30.06,NNW,337,86.1,86.1,56,0.00,,,0.00,WUHU21623XXSP,2013-06-03 06:27:00,
2013-06-03 01:28:00,73.9,57.2,30.06,NNW,337,86.1,86.1,56,0.00,,,0.00,WUHU21623XXSP,2013-06-03 06:28:00,
2013-06-03 01:31:00,73.9,57.2,30.06,NW,315,43.2,86.1,56,0.00,,,0.00,WUHU21623XXSP,2013-06-03 06:31:00,
2013-06-03 01:32:00,73.9,57.2,30.06,NW,315,43.2,86.1,56,0.00,,,0.00,WUHU21623XXSP,2013-06-03 06:32:00,
2013-06-03 01:33:00,73.9,57.2,30.06,NW,315,43.2,86.1,56,0.00,,,0.00,WUHU21623XXSP,2013-06-03 06:33:00,
2013-06-03 01:36:00,73.9,57.7,30.06,NNW,337,86.1,86.1,57,0.00,,,0.00,WUHU21623XXSP,2013-06-03 06:36:00,
2013-06-03 01:37:00,73.9,57.7,30.06,NNW,337,86.1,86.1,57,0.00,,,0.00,WUHU21623XXSP,2013-06-03 06:37:00,
2013-06-03 01:38:00,73.9,57.7,30.06,NNW,337,86.1,86.1,57,0.00,,,0.00,WUHU21623XXSP,2013-06-03 06:38:00,
2013-06-03 01:49:00,73.6,57.3,30.05,NNW,337,86.1,86.1,57,0.00,,,0.00,WUHU21623XXSP,2013-06-03 06:49:00,
2013-06-03 01:50:00,73.6,57.3,30.05,NNW,337,86.1,86.1,57,0.00,,,0.00,WUHU21623XXSP,2013-06-03 06:50:00,
2013-06-03 01:52:00,73.4,57.6,30.05,NNW,337,57.9,57.9,58,0.00,,,0.00,WUHU21623XXSP,2013-06-03 06:52:00,
2013-06-03 01:54:00,73.4,57.6,30.05,NNW,337,57.9,86.1,58,0.00,,,0.00,WUHU21623XXSP,2013-06-03 06:54:00,
2013-06-03 01:55:00,73.4,57.6,30.05,NNW,337,57.9,86.1,58,0.00,,,0.00,WUHU21623XXSP,2013-06-03 06:55:00,
2013-06-03 01:59:00,73.4,57.6,30.05,NNW,337,57.9,57.9,58,0.00,,,0.00,WUHU21623XXSP,2013-06-03 06:59:00,
2013-06-03 02:00:00,73.4,57.6,30.05,NNW,337,57.9,57.9,58,0.00,,,0.00,WUHU21623XXSP,2013-06-03 07:00:00,
2013-06-03 02:25:00,73.0,57.8,30.07,North,0,0.0,0.0,59,0.00,,,0.00,WUHU21623XXSP,2013-06-03 07:25:00,
2013-06-03 02:30:00,73.0,57.8,30.07,North,0,0.0,0.0,59,0.00,,,0.00,WUHU21623XXSP,2013-06-03 07:30:00,
2013-06-03 02:31:00,73.0,57.8,30.07,North,0,0.0,0.0,59,0.00,,,0.00,WUHU21623XXSP,2013-06-03 07:31:00,
2013-06-03 02:32:00,73.0,57.8,30.07,North,0,0.0,0.0,59,0.00,,,0.00,WUHU21623XXSP,2013-06-03 07:32:00,
2013-06-03 02:35:00,72.7,58.2,30.06,NNW,337,0.0,0.0,60,0.00,,,0.00,WUHU21623XXSP,2013-06-03 07:35:00,
2013-06-03 02:37:00,72.7,58.2,30.06,NNW,337,0.0,0.0,60,0.00,,,0.00,WUHU21623XXSP,2013-06-03 07:37:00,
2013-06-03 03:13:00,72.3,58.1,30.07,NNW,337,86.1,86.1,61,0.00,,,0.00,WUHU21623XXSP,2013-06-03 08:13:00,
2013-06-03 03:14:00,72.3,58.1,30.07,NNW,337,86.1,86.1,61,0.00,,,0.00,WUHU21623XXSP,2013-06-03 08:14:00,
2013-06-03 03:18:00,72.3,58.1,30.07,NNW,337,86.1,86.1,61,0.00,,,0.00,WUHU21623XXSP,2013-06-03 08:18:00,
2013-06-03 03:19:00,72.3,58.1,30.07,NNW,337,86.1,86.1,61,0.00,,,0.00,WUHU21623XXSP,2013-06-03 08:19:00,
2013-06-03 03:42:00,72.0,57.8,30.07,NNW,337,86.1,86.1,61,0.00,,,0.00,WUHU21623XXSP,2013-06-03 08:42:00,
2013-06-03 03:47:00,72.0,57.8,30.07,NNW,337,86.1,86.1,61,0.00,,,0.00,WUHU21623XXSP,2013-06-03 08:47:00,
2013-06-03 03:48:00,72.0,57.8,30.07,NNW,337,86.1,86.1,61,0.00,,,0.00,WUHU21623XXSP,2013-06-03 08:48:00,
2013-06-03 07:05:00,69.8,57.1,30.07,North,0,0.0,0.0,64,0.00,,,0.00,WUHU21623XXSP,2013-06-03 12:05:00,
2013-06-03 07:06:00,69.8,57.1,30.07,North,0,0.0,0.0,64,0.00,,,0.00,WUHU21623XXSP,2013-06-03 12:06:00,
2013-06-03 07:11:00,69.8,57.1,30.07,North,0,0.0,0.0,64,0.00,,,0.00,WUHU21623XXSP,2013-06-03 12:11:00,
2013-06-03 07:12:00,69.8,57.1,30.07,North,0,0.0,0.0,64,0.00,,,0.00,WUHU21623XXSP,2013-06-03 12:12:00,
2013-06-03 08:17:00,70.5,59.0,30.06,NNW,337,86.1,86.1,67,0.00,,,0.00,WUHU21623XXSP,2013-06-03 13:17:00,
2013-06-03 08:22:00,70.5,59.0,30.06,NNW,337,86.1,86.1,67,0.00,,,0.00,WUHU21623XXSP,2013-06-03 13:22:00,
2013-06-03 08:23:00,70.5,59.0,30.06,NNW,337,86.1,86.1,67,0.00,,,0.00,WUHU21623XXSP,2013-06-03 13:23:00,
2013-06-03 08:27:00,70.7,59.2,30.07,North,0,0.0,86.1,67,0.00,,,0.00,WUHU21623XXSP,2013-06-03 13:27:00,
2013-06-03 08:28:00,70.7,59.2,30.07,North,0,0.0,28.6,67,0.00,,,0.00,WUHU21623XXSP,2013-06-03 13:28:00,
2013-06-03 08:32:00,70.7,59.2,30.07,North,0,0.0,28.6,67,0.00,,,0.00,WUHU21623XXSP,2013-06-03 13:32:00,
2013-06-03 08:33:00,70.7,59.2,30.07,NNW,337,28.6,28.6,67,0.00,,,0.00,WUHU21623XXSP,2013-06-03 13:33:00,
2013-06-03 08:37:00,70.9,59.3,30.06,NNW,337,28.6,28.6,67,0.00,,,0.00,WUHU21623XXSP,2013-06-03 13:37:00,
2013-06-03 08:38:00,70.9,59.3,30.06,NNW,337,28.6,28.6,67,0.00,,,0.00,WUHU21623XXSP,2013-06-03 13:38:00,
2013-06-03 08:43:00,71.1,59.1,30.06,NNW,337,28.6,28.6,66,0.00,,,0.00,WUHU21623XXSP,2013-06-03 13:43:00,
2013-06-03 08:48:00,71.2,59.3,30.06,NW,315,28.9,28.9,66,0.00,,,0.00,WUHU21623XXSP,2013-06-03 13:48:00,
2013-06-03 08:49:00,71.2,59.3,30.06,NW,315,28.9,28.9,66,0.00,,,0.00,WUHU21623XXSP,2013-06-03 13:49:00,
2013-06-03 08:53:00,71.2,59.3,30.06,NW,315,28.9,28.9,66,0.00,,,0.00,WUHU21623XXSP,2013-06-03 13:53:00,
2013-06-03 08:54:00,71.2,59.3,30.06,NW,315,28.9,28.9,66,0.00,,,0.00,WUHU21623XXSP,2013-06-03 13:54:00,
2013-06-03 08:58:00,71.4,59.0,30.07,NW,315,28.9,28.9,65,0.00,,,0.00,WUHU21623XXSP,2013-06-03 13:58:00,
2013-06-03 08:59:00,71.4,59.0,30.07,NW,315,28.9,28.9,65,0.00,,,0.00,WUHU21623XXSP,2013-06-03 13:59:00,
2013-06-03 09:04:00,71.4,59.0,30.07,NW,315,28.9,28.9,65,0.00,,,0.00,WUHU21623XXSP,2013-06-03 14:04:00,
2013-06-03 09:09:00,71.4,59.0,30.07,NW,315,28.9,28.9,65,0.00,,,0.00,WUHU21623XXSP,2013-06-03 14:09:00,
2013-06-03 09:14:00,71.8,59.3,30.07,NW,315,28.9,28.9,65,0.00,,,0.00,WUHU21623XXSP,2013-06-03 14:14:00,
2013-06-03 09:15:00,71.8,59.3,30.07,NW,315,28.9,28.9,65,0.00,,,0.00,WUHU21623XXSP,2013-06-03 14:15:00,
2013-06-03 09:19:00,71.6,59.2,30.07,NW,315,28.9,28.9,65,0.00,,,0.00,WUHU21623XXSP,2013-06-03 14:19:00,
2013-06-03 09:20:00,71.6,59.2,30.07,NW,315,28.9,28.9,65,0.00,,,0.00,WUHU21623XXSP,2013-06-03 14:20:00,
2013-06-03 09:24:00,71.8,59.3,30.07,NW,315,28.9,28.9,65,0.00,,,0.00,WUHU21623XXSP,2013-06-03 14:24:00,
2013-06-03 09:25:00,71.8,59.3,30.07,NW,315,28.9,28.9,65,0.00,,,0.00,WUHU21623XXSP,2013-06-03 14:25:00,
2013-06-03 09:29:00,72.0,59.5,30.07,NW,315,28.9,28.9,65,0.00,,,0.00,WUHU21623XXSP,2013-06-03 14:29:00,
2013-06-03 09:30:00,72.0,59.5,30.07,NW,315,28.9,28.9,65,0.00,,,0.00,WUHU21623XXSP,2013-06-03 14:30:00,
2013-06-03 09:31:00,72.1,59.7,30.07,NW,315,28.9,28.9,65,0.00,,,0.00,WUHU21623XXSP,2013-06-03 14:31:00,
2013-06-03 09:34:00,72.1,59.7,30.07,NW,315,28.9,28.9,65,0.00,,,0.00,WUHU21623XXSP,2013-06-03 14:34:00,
2013-06-03 09:35:00,72.1,59.7,30.07,NW,315,28.9,28.9,65,0.00,,,0.00,WUHU21623XXSP,2013-06-03 14:35:00,
2013-06-03 09:36:00,72.1,59.7,30.07,NW,315,28.9,28.9,65,0.00,,,0.00,WUHU21623XXSP,2013-06-03 14:36:00,
2013-06-03 09:40:00,72.5,60.0,30.07,NW,315,28.9,28.9,65,0.00,,,0.00,WUHU21623XXSP,2013-06-03 14:40:00,
2013-06-03 09:41:00,72.5,60.0,30.07,NW,315,28.9,28.9,65,0.00,,,0.00,WUHU21623XXSP,2013-06-03 14:41:00,
2013-06-03 09:45:00,72.7,59.8,30.07,NW,315,28.9,28.9,64,0.00,,,0.00,WUHU21623XXSP,2013-06-03 14:45:00,
2013-06-03 09:46:00,72.7,59.8,30.07,NW,315,28.9,28.9,64,0.00,,,0.00,WUHU21623XXSP,2013-06-03 14:46:00,
2013-06-03 09:50:00,72.7,59.8,30.07,NW,315,28.9,28.9,64,0.00,,,0.00,WUHU21623XXSP,2013-06-03 14:50:00,
2013-06-03 09:52:00,73.0,60.1,30.07,NW,315,28.9,28.9,64,0.00,,,0.00,WUHU21623XXSP,2013-06-03 14:52:00,
2013-06-03 09:55:00,73.2,60.3,30.07,NW,315,28.9,28.9,64,0.00,,,0.00,WUHU21623XXSP,2013-06-03 14:55:00,
2013-06-03 09:57:00,73.2,60.3,30.07,NW,315,28.9,28.9,64,0.00,,,0.00,WUHU21623XXSP,2013-06-03 14:57:00,
2013-06-03 10:00:00,73.6,60.6,30.07,NNW,337,28.6,28.9,64,0.00,,,0.00,WUHU21623XXSP,2013-06-03 15:00:00,
2013-06-03 10:01:00,73.6,60.6,30.07,NW,315,28.9,28.9,64,0.00,,,0.00,WUHU21623XXSP,2013-06-03 15:01:00,
2013-06-03 10:02:00,73.6,60.6,30.07,NW,315,28.9,28.9,64,0.00,,,0.00,WUHU21623XXSP,2013-06-03 15:02:00,
2013-06-03 10:05:00,73.8,60.8,30.07,NW,315,28.9,28.9,64,0.00,,,0.00,WUHU21623XXSP,2013-06-03 15:05:00,
2013-06-03 10:06:00,73.8,60.8,30.07,NW,315,28.9,28.9,64,0.00,,,0.00,WUHU21623XXSP,2013-06-03 15:06:00,
2013-06-03 10:07:00,73.8,60.8,30.07,NW,315,28.9,28.9,64,0.00,,,0.00,WUHU21623XXSP,2013-06-03 15:07:00,
2013-06-03 10:12:00,73.9,60.9,30.07,NW,315,28.9,28.9,64,0.00,,,0.00,WUHU21623XXSP,2013-06-03 15:12:00,
2013-06-03 10:13:00,73.9,60.9,30.07,NW,315,28.9,28.9,64,0.00,,,0.00,WUHU21623XXSP,2013-06-03 15:13:00,
2013-06-03 10:17:00,74.1,61.1,30.06,NW,315,28.9,28.9,64,0.00,,,0.00,WUHU21623XXSP,2013-06-03 15:17:00,
2013-06-03 10:18:00,74.1,61.1,30.06,NW,315,28.9,28.9,64,0.00,,,0.00,WUHU21623XXSP,2013-06-03 15:18:00,
2013-06-03 10:22:00,74.5,61.5,30.06,NW,315,28.9,28.9,64,0.00,,,0.00,WUHU21623XXSP,2013-06-03 15:22:00,
2013-06-03 10:24:00,74.5,61.0,30.05,NW,315,28.9,28.9,63,0.00,,,0.00,WUHU21623XXSP,2013-06-03 15:24:00,
2013-06-03 10:27:00,74.8,61.4,30.05,NW,315,28.9,28.9,63,0.00,,,0.00,WUHU21623XXSP,2013-06-03 15:27:00,
2013-06-03 10:28:00,74.8,61.4,30.05,NW,315,28.9,28.9,63,0.00,,,0.00,WUHU21623XXSP,2013-06-03 15:28:00,
2013-06-03 10:29:00,74.8,60.9,30.06,NW,315,28.9,28.9,62,0.00,,,0.00,WUHU21623XXSP,2013-06-03 15:29:00,
2013-06-03 10:32:00,75.0,61.1,30.06,NW,315,28.9,28.9,62,0.00,,,0.00,WUHU21623XXSP,2013-06-03 15:32:00,
2013-06-03 10:33:00,75.0,61.1,30.06,NW,315,28.9,28.9,62,0.00,,,0.00,WUHU21623XXSP,2013-06-03 15:33:00,
2013-06-03 10:34:00,75.4,61.5,30.05,NW,315,28.9,28.9,62,0.00,,,0.00,WUHU21623XXSP,2013-06-03 15:34:00,
2013-06-03 10:37:00,75.6,61.2,30.06,NW,315,28.9,28.9,61,0.00,,,0.00,WUHU21623XXSP,2013-06-03 15:37:00,
2013-06-03 10:38:00,75.6,61.2,30.06,NW,315,28.9,28.9,61,0.00,,,0.00,WUHU21623XXSP,2013-06-03 15:38:00,
2013-06-03 10:39:00,75.7,61.4,30.06,NW,315,28.9,28.9,61,0.00,,,0.00,WUHU21623XXSP,2013-06-03 15:39:00,
2013-06-03 10:43:00,75.9,61.1,30.06,NW,315,28.9,28.9,60,0.00,,,0.00,WUHU21623XXSP,2013-06-03 15:43:00,
2013-06-03 10:44:00,75.9,61.1,30.06,NW,315,28.9,28.9,60,0.00,,,0.00,WUHU21623XXSP,2013-06-03 15:44:00,
2013-06-03 10:45:00,75.9,61.1,30.06,NW,315,28.9,28.9,60,0.00,,,0.00,WUHU21623XXSP,2013-06-03 15:45:00,
2013-06-03 10:48:00,76.1,61.3,30.06,NW,315,28.9,28.9,60,0.00,,,0.00,WUHU21623XXSP,2013-06-03 15:48:00,
2013-06-03 10:49:00,76.3,61.3,30.06,NW,315,28.9,28.9,60,0.00,,,0.00,WUHU21623XXSP,2013-06-03 15:49:00,
2013-06-03 10:50:00,76.3,60.9,30.06,NW,315,28.9,28.9,59,0.00,,,0.00,WUHU21623XXSP,2013-06-03 15:50:00,
2013-06-03 10:53:00,76.6,61.7,30.06,NW,315,28.9,28.9,60,0.00,,,0.00,WUHU21623XXSP,2013-06-03 15:53:00,
2013-06-03 10:54:00,76.6,61.7,30.06,NW,315,28.9,28.9,60,0.00,,,0.00,WUHU21623XXSP,2013-06-03 15:54:00,
2013-06-03 10:55:00,76.6,61.2,30.06,NW,315,28.9,28.9,59,0.00,,,0.00,WUHU21623XXSP,2013-06-03 15:55:00,
2013-06-03 10:59:00,76.8,61.4,30.06,NW,315,28.9,28.9,59,0.00,,,0.00,WUHU21623XXSP,2013-06-03 15:59:00,
2013-06-03 11:00:00,76.8,61.4,30.06,NW,315,28.9,28.9,59,0.00,,,0.00,WUHU21623XXSP,2013-06-03 16:00:00,
2013-06-03 11:04:00,76.8,61.4,30.06,NW,315,28.9,28.9,59,0.00,,,0.00,WUHU21623XXSP,2013-06-03 16:04:00,
2013-06-03 11:05:00,76.8,61.4,30.06,NW,315,28.9,28.9,59,0.00,,,0.00,WUHU21623XXSP,2013-06-03 16:05:00,
2013-06-03 11:09:00,76.8,61.6,30.05,NW,315,28.9,28.9,59,0.00,,,0.00,WUHU21623XXSP,2013-06-03 16:09:00,
2013-06-03 11:10:00,77.0,61.6,30.05,NNW,337,28.6,28.9,59,0.00,,,0.00,WUHU21623XXSP,2013-06-03 16:10:00,
2013-06-03 11:11:00,77.0,61.6,30.05,NNW,337,28.6,28.9,58,0.00,,,0.00,WUHU21623XXSP,2013-06-03 16:11:00,
2013-06-03 11:14:00,77.2,61.2,30.05,NNW,337,28.6,28.9,58,0.00,,,0.00,WUHU21623XXSP,2013-06-03 16:14:00,
2013-06-03 11:15:00,77.2,61.2,30.05,NNW,337,28.6,28.9,58,0.00,,,0.00,WUHU21623XXSP,2013-06-03 16:15:00,
2013-06-03 11:16:00,77.2,61.2,30.05,NNW,337,28.6,28.9,58,0.00,,,0.00,WUHU21623XXSP,2013-06-03 16:16:00,
2013-06-03 11:19:00,77.4,60.9,30.04,NNW,337,28.6,28.6,57,0.00,,,0.00,WUHU21623XXSP,2013-06-03 16:19:00,
2013-06-03 11:20:00,77.4,60.9,30.04,NNW,337,28.6,28.6,57,0.00,,,0.00,WUHU21623XXSP,2013-06-03 16:20:00,
2013-06-03 11:21:00,77.5,61.1,30.04,NNW,337,28.6,28.6,57,0.00,,,0.00,WUHU21623XXSP,2013-06-03 16:21:00,
2013-06-03 11:22:00,77.5,61.1,30.04,NNW,337,28.6,28.6,57,0.00,,,0.00,WUHU21623XXSP,2013-06-03 16:22:00,
2013-06-03 11:24:00,77.7,60.5,30.04,NNW,337,28.6,28.6,56,0.00,,,0.00,WUHU21623XXSP,2013-06-03 16:24:00,
2013-06-03 11:25:00,77.7,60.7,30.04,NNW,337,28.6,28.6,56,0.00,,,0.00,WUHU21623XXSP,2013-06-03 16:25:00,
2013-06-03 11:26:00,77.7,60.7,30.04,NNW,337,28.6,28.6,56,0.00,,,0.00,WUHU21623XXSP,2013-06-03 16:26:00,
2013-06-03 11:28:00,77.9,60.9,30.04,NNW,337,28.6,28.9,56,0.00,,,0.00,WUHU21623XXSP,2013-06-03 16:28:00,
2013-06-03 11:29:00,77.9,60.9,30.04,NNW,337,28.6,28.9,56,0.00,,,0.00,WUHU21623XXSP,2013-06-03 16:29:00,
2013-06-03 11:30:00,78.1,60.9,30.04,NNW,337,28.6,28.9,56,0.00,,,0.00,WUHU21623XXSP,2013-06-03 16:30:00,
2013-06-03 11:31:00,78.1,60.9,30.04,NNW,337,28.6,28.9,56,0.00,,,0.00,WUHU21623XXSP,2013-06-03 16:31:00,
2013-06-03 11:32:00,78.1,61.1,30.04,NNW,337,28.6,28.9,56,0.00,,,0.00,WUHU21623XXSP,2013-06-03 16:32:00,
2013-06-03 11:34:00,78.1,61.1,30.04,NNW,337,28.6,28.9,56,0.00,,,0.00,WUHU21623XXSP,2013-06-03 16:34:00,
2013-06-03 11:35:00,78.1,61.1,30.04,NNW,337,28.6,28.9,56,0.00,,,0.00,WUHU21623XXSP,2013-06-03 16:35:00,
2013-06-03 11:37:00,78.3,61.3,30.04,NNW,337,28.6,28.9,56,0.00,,,0.00,WUHU21623XXSP,2013-06-03 16:37:00,
2013-06-03 11:39:00,78.4,60.9,30.04,NNW,337,28.6,28.6,55,0.00,,,0.00,WUHU21623XXSP,2013-06-03 16:39:00,
2013-06-03 11:40:00,78.4,60.9,30.04,NNW,337,28.6,28.6,55,0.00,,,0.00,WUHU21623XXSP,2013-06-03 16:40:00,
2013-06-03 11:42:00,78.6,61.1,30.04,NNW,337,28.6,28.6,55,0.00,,,0.00,WUHU21623XXSP,2013-06-03 16:42:00,
2013-06-03 11:44:00,78.6,61.1,30.03,NW,315,28.9,28.9,55,0.00,,,0.00,WUHU21623XXSP,2013-06-03 16:44:00,
2013-06-03 11:45:00,78.6,61.1,30.03,NNW,337,28.6,28.9,55,0.00,,,0.00,WUHU21623XXSP,2013-06-03 16:45:00,
2013-06-03 11:47:00,79.0,61.4,30.03,NNW,337,28.6,28.9,55,0.00,,,0.00,WUHU21623XXSP,2013-06-03 16:47:00,
2013-06-03 11:49:00,79.0,61.4,30.03,NNW,337,28.6,28.9,55,0.00,,,0.00,WUHU21623XXSP,2013-06-03 16:49:00,
2013-06-03 11:50:00,79.0,61.4,30.03,NNW,337,28.6,28.9,55,0.00,,,0.00,WUHU21623XXSP,2013-06-03 16:50:00,
2013-06-03 11:51:00,79.2,61.6,30.03,NNW,337,28.6,28.9,55,0.00,,,0.00,WUHU21623XXSP,2013-06-03 16:51:00,
2013-06-03 11:52:00,79.2,61.6,30.03,NNW,337,28.6,28.9,55,0.00,,,0.00,WUHU21623XXSP,2013-06-03 16:52:00,
2013-06-03 11:53:00,79.2,61.6,30.03,NNW,337,28.6,28.9,55,0.00,,,0.00,WUHU21623XXSP,2013-06-03 16:53:00,
2013-06-03 11:55:00,79.3,61.2,30.03,NNW,337,28.6,28.9,54,0.00,,,0.00,WUHU21623XXSP,2013-06-03 16:55:00,
2013-06-03 11:57:00,79.5,61.2,30.03,NNW,337,28.6,28.9,54,0.00,,,0.00,WUHU21623XXSP,2013-06-03 16:57:00,
2013-06-03 11:58:00,79.5,61.4,30.03,NNW,337,28.6,28.9,54,0.00,,,0.00,WUHU21623XXSP,2013-06-03 16:58:00,
2013-06-03 12:00:00,79.7,61.4,30.03,NNW,337,28.6,28.9,54,0.00,,,0.00,WUHU21623XXSP,2013-06-03 17:00:00,
2013-06-03 12:02:00,79.7,61.5,30.03,NW,315,28.9,28.9,54,0.00,,,0.00,WUHU21623XXSP,2013-06-03 17:02:00,
2013-06-03 12:03:00,79.7,61.5,30.03,NNW,337,28.6,28.9,54,0.00,,,0.00,WUHU21623XXSP,2013-06-03 17:03:00,
2013-06-03 12:05:00,79.7,61.0,30.03,NW,315,28.9,28.9,53,0.00,,,0.00,WUHU21623XXSP,2013-06-03 17:05:00,
2013-06-03 12:06:00,79.7,61.0,30.03,NW,315,28.9,28.9,53,0.00,,,0.00,WUHU21623XXSP,2013-06-03 17:06:00,
2013-06-03 12:07:00,79.7,61.0,30.03,NW,315,28.9,28.9,53,0.00,,,0.00,WUHU21623XXSP,2013-06-03 17:07:00,
2013-06-03 12:08:00,79.7,61.0,30.03,NW,315,28.9,28.9,53,0.00,,,0.00,WUHU21623XXSP,2013-06-03 17:08:00,
2013-06-03 12:11:00,79.9,61.2,30.03,NW,315,28.9,28.9,53,0.00,,,0.00,WUHU21623XXSP,2013-06-03 17:11:00,
2013-06-03 12:12:00,79.9,61.2,30.03,NW,315,28.9,28.9,53,0.00,,,0.00,WUHU21623XXSP,2013-06-03 17:12:00,
2013-06-03 12:13:00,79.9,61.2,30.03,NW,315,28.9,28.9,53,0.00,,,0.00,WUHU21623XXSP,2013-06-03 17:13:00,
2013-06-03 12:16:00,80.2,61.5,30.03,NW,315,28.9,28.9,53,0.00,,,0.00,WUHU21623XXSP,2013-06-03 17:16:00,
2013-06-03 12:17:00,80.2,61.5,30.03,NW,315,28.9,28.9,53,0.00,,,0.00,WUHU21623XXSP,2013-06-03 17:17:00,
2013-06-03 12:18:00,80.2,61.5,30.03,NW,315,28.9,28.9,53,0.00,,,0.00,WUHU21623XXSP,2013-06-03 17:18:00,
2013-06-03 12:22:00,80.4,61.1,30.03,NW,315,28.9,28.9,52,0.00,,,0.00,WUHU21623XXSP,2013-06-03 17:22:00,
2013-06-03 12:23:00,80.4,61.1,30.03,NW,315,28.9,28.9,52,0.00,,,0.00,WUHU21623XXSP,2013-06-03 17:23:00,
2013-06-03 12:24:00,80.4,61.1,30.03,NW,315,28.9,28.9,52,0.00,,,0.00,WUHU21623XXSP,2013-06-03 17:24:00,
2013-06-03 12:27:00,80.6,61.3,30.03,NNW,337,28.6,28.9,52,0.00,,,0.00,WUHU21623XXSP,2013-06-03 17:27:00,
2013-06-03 12:28:00,80.6,61.3,30.03,NNW,337,28.6,28.9,52,0.00,,,0.00,WUHU21623XXSP,2013-06-03 17:28:00,
2013-06-03 12:29:00,80.8,61.5,30.03,NNW,337,28.6,28.9,52,0.00,,,0.00,WUHU21623XXSP,2013-06-03 17:29:00,
2013-06-03 12:32:00,81.0,61.6,30.03,NNW,337,28.6,28.9,52,0.00,,,0.00,WUHU21623XXSP,2013-06-03 17:32:00,
2013-06-03 12:33:00,81.0,61.6,30.03,NNW,337,28.6,28.9,52,0.00,,,0.00,WUHU21623XXSP,2013-06-03 17:33:00,
2013-06-03 12:35:00,81.0,61.6,30.03,NNW,337,28.6,28.9,52,0.00,,,0.00,WUHU21623XXSP,2013-06-03 17:35:00,
2013-06-03 12:38:00,81.1,61.8,30.02,NW,315,28.9,28.9,52,0.00,,,0.00,WUHU21623XXSP,2013-06-03 17:38:00,
2013-06-03 12:39:00,81.1,61.8,30.03,NW,315,28.9,28.9,52,0.00,,,0.00,WUHU21623XXSP,2013-06-03 17:39:00,
2013-06-03 12:40:00,81.1,61.8,30.02,NW,315,28.9,28.9,52,0.00,,,0.00,WUHU21623XXSP,2013-06-03 17:40:00,
2013-06-03 12:43:00,81.3,62.0,30.02,NW,315,28.9,28.9,52,0.00,,,0.00,WUHU21623XXSP,2013-06-03 17:43:00,
2013-06-03 12:44:00,81.3,62.0,30.02,NW,315,28.9,28.9,52,0.00,,,0.00,WUHU21623XXSP,2013-06-03 17:44:00,
2013-06-03 12:45:00,81.5,61.6,30.02,NW,315,28.9,28.9,51,0.00,,,0.00,WUHU21623XXSP,2013-06-03 17:45:00,
2013-06-03 12:48:00,81.7,61.8,30.02,NW,315,28.9,28.9,51,0.00,,,0.00,WUHU21623XXSP,2013-06-03 17:48:00,
2013-06-03 12:49:00,81.7,61.8,30.02,NW,315,28.9,28.9,51,0.00,,,0.00,WUHU21623XXSP,2013-06-03 17:49:00,
2013-06-03 12:50:00,81.7,61.8,30.02,NW,315,28.9,28.9,51,0.00,,,0.00,WUHU21623XXSP,2013-06-03 17:50:00,
2013-06-03 12:53:00,81.9,61.4,30.02,NW,315,28.9,28.9,50,0.00,,,0.00,WUHU21623XXSP,2013-06-03 17:53:00,
2013-06-03 12:54:00,81.9,61.4,30.02,NW,315,28.9,28.9,50,0.00,,,0.00,WUHU21623XXSP,2013-06-03 17:54:00,
2013-06-03 12:55:00,82.0,61.6,30.02,NW,315,28.9,28.9,50,0.00,,,0.00,WUHU21623XXSP,2013-06-03 17:55:00,
2013-06-03 12:56:00,82.0,61.6,30.02,NW,315,28.9,28.9,50,0.00,,,0.00,WUHU21623XXSP,2013-06-03 17:56:00,
2013-06-03 12:58:00,82.0,60.9,30.02,NW,315,28.9,28.9,49,0.00,,,0.00,WUHU21623XXSP,2013-06-03 17:58:00,
2013-06-03 12:59:00,82.2,61.1,30.02,NW,315,28.9,28.9,49,0.00,,,0.00,WUHU21623XXSP,2013-06-03 17:59:00,
2013-06-03 13:00:00,82.2,61.7,30.02,NW,315,28.9,28.9,50,0.00,,,0.00,WUHU21623XXSP,2013-06-03 18:00:00,
2013-06-03 13:02:00,82.2,61.7,30.01,NW,315,28.9,28.9,50,0.00,,,0.00,WUHU21623XXSP,2013-06-03 18:02:00,
2013-06-03 13:03:00,82.2,61.7,30.01,NW,315,28.9,28.9,50,0.00,,,0.00,WUHU21623XXSP,2013-06-03 18:03:00,
2013-06-03 13:04:00,82.4,61.9,30.01,NW,315,28.9,28.9,50,0.00,,,0.00,WUHU21623XXSP,2013-06-03 18:04:00,
2013-06-03 13:05:00,82.6,62.1,30.01,NW,315,28.9,28.9,50,0.00,,,0.00,WUHU21623XXSP,2013-06-03 18:05:00,
2013-06-03 13:07:00,82.6,62.1,30.01,NW,315,28.9,28.9,50,0.00,,,0.00,WUHU21623XXSP,2013-06-03 18:07:00,
2013-06-03 13:08:00,82.6,62.1,30.01,NW,315,28.9,28.9,49,0.00,,,0.00,WUHU21623XXSP,2013-06-03 18:08:00,
2013-06-03 13:09:00,82.6,61.4,30.01,NW,315,28.9,28.9,49,0.00,,,0.00,WUHU21623XXSP,2013-06-03 18:09:00,
2013-06-03 13:10:00,82.8,62.2,30.01,NW,315,28.9,28.9,50,0.00,,,0.00,WUHU21623XXSP,2013-06-03 18:10:00,
2013-06-03 13:13:00,82.8,62.2,30.01,NW,315,28.9,28.9,50,0.00,,,0.00,WUHU21623XXSP,2013-06-03 18:13:00,
2013-06-03 13:14:00,82.8,62.2,30.01,NW,315,28.9,28.9,50,0.00,,,0.00,WUHU21623XXSP,2013-06-03 18:14:00,
2013-06-03 13:16:00,82.9,61.8,30.01,NW,315,28.9,28.9,49,0.00,,,0.00,WUHU21623XXSP,2013-06-03 18:16:00,
2013-06-03 13:18:00,82.9,61.8,30.01,NW,315,28.9,28.9,49,0.00,,,0.00,WUHU21623XXSP,2013-06-03 18:18:00,
2013-06-03 13:19:00,83.1,62.0,30.01,NW,315,28.9,28.9,49,0.00,,,0.00,WUHU21623XXSP,2013-06-03 18:19:00,
2013-06-03 13:20:00,83.1,62.0,30.01,NW,315,28.9,28.9,49,0.00,,,0.00,WUHU21623XXSP,2013-06-03 18:20:00,
2013-06-03 13:21:00,83.1,62.0,30.01,NW,315,28.9,28.9,49,0.00,,,0.00,WUHU21623XXSP,2013-06-03 18:21:00,
2013-06-03 13:23:00,83.1,62.0,30.01,NW,315,28.9,28.9,49,0.00,,,0.00,WUHU21623XXSP,2013-06-03 18:23:00,
2013-06-03 13:24:00,83.1,62.0,30.01,NW,315,28.9,28.9,49,0.00,,,0.00,WUHU21623XXSP,2013-06-03 18:24:00,
2013-06-03 13:25:00,83.1,62.0,30.01,NW,315,28.9,28.9,49,0.00,,,0.00,WUHU21623XXSP,2013-06-03 18:25:00,
2013-06-03 13:26:00,83.1,62.0,30.01,NW,315,28.9,28.9,49,0.00,,,0.00,WUHU21623XXSP,2013-06-03 18:26:00,
2013-06-03 13:28:00,83.1,62.0,30.01,NW,315,28.9,28.9,49,0.00,,,0.00,WUHU21623XXSP,2013-06-03 18:28:00,
2013-06-03 13:29:00,83.1,62.0,30.01,NW,315,28.9,28.9,49,0.00,,,0.00,WUHU21623XXSP,2013-06-03 18:29:00,
2013-06-03 13:30:00,83.1,62.0,30.01,NW,315,28.9,28.9,48,0.00,,,0.00,WUHU21623XXSP,2013-06-03 18:30:00,
2013-06-03 13:31:00,83.1,61.4,30.01,NW,315,28.9,28.9,48,0.00,,,0.00,WUHU21623XXSP,2013-06-03 18:31:00,
2013-06-03 13:34:00,83.3,61.5,30.01,NW,315,28.9,28.9,48,0.00,,,0.00,WUHU21623XXSP,2013-06-03 18:34:00,
2013-06-03 13:35:00,83.5,61.7,30.01,NW,315,28.9,28.9,48,0.00,,,0.00,WUHU21623XXSP,2013-06-03 18:35:00,
2013-06-03 13:36:00,83.5,61.7,30.01,NW,315,28.9,28.9,48,0.00,,,0.00,WUHU21623XXSP,2013-06-03 18:36:00,
2013-06-03 13:39:00,83.7,62.5,30.00,NW,315,28.9,28.9,49,0.00,,,0.00,WUHU21623XXSP,2013-06-03 18:39:00,
2013-06-03 13:40:00,83.8,62.7,30.00,NW,315,28.9,28.9,49,0.00,,,0.00,WUHU21623XXSP,2013-06-03 18:40:00,
2013-06-03 13:42:00,83.8,62.7,30.00,NW,315,28.9,28.9,49,0.00,,,0.00,WUHU21623XXSP,2013-06-03 18:42:00,
2013-06-03 13:44:00,83.8,62.7,30.00,NW,315,28.9,28.9,49,0.00,,,0.00,WUHU21623XXSP,2013-06-03 18:44:00,
2013-06-03 13:45:00,83.8,62.7,30.00,NW,315,28.9,28.9,49,0.00,,,0.00,WUHU21623XXSP,2013-06-03 18:45:00,
2013-06-03 13:47:00,84.0,62.9,30.00,NW,315,28.9,28.9,49,0.00,,,0.00,WUHU21623XXSP,2013-06-03 18:47:00,
2013-06-03 13:49:00,84.0,62.2,30.00,NW,315,28.9,28.9,48,0.00,,,0.00,WUHU21623XXSP,2013-06-03 18:49:00,
2013-06-03 13:50:00,84.0,62.9,30.00,NW,315,28.9,28.9,49,0.00,,,0.00,WUHU21623XXSP,2013-06-03 18:50:00,
2013-06-03 13:52:00,84.0,62.9,30.00,NW,315,28.9,28.9,49,0.00,,,0.00,WUHU21623XXSP,2013-06-03 18:52:00,
2013-06-03 13:55:00,84.2,63.0,30.00,NW,315,28.9,28.9,49,0.00,,,0.00,WUHU21623XXSP,2013-06-03 18:55:00,
2013-06-03 13:57:00,84.2,63.2,30.00,NW,315,28.9,28.9,48,0.00,,,0.00,WUHU21623XXSP,2013-06-03 18:57:00,
2013-06-03 14:00:00,84.4,62.6,30.00,NW,315,28.9,28.9,48,0.00,,,0.00,WUHU21623XXSP,2013-06-03 19:00:00,
2013-06-03 14:01:00,84.4,63.2,30.00,NW,315,28.9,28.9,49,0.00,,,0.00,WUHU21623XXSP,2013-06-03 19:01:00,
2013-06-03 14:02:00,84.4,63.2,30.00,NW,315,28.9,28.9,49,0.00,,,0.00,WUHU21623XXSP,2013-06-03 19:02:00,
2013-06-03 14:03:00,84.4,63.2,30.00,NW,315,28.9,28.9,49,0.00,,,0.00,WUHU21623XXSP,2013-06-03 19:03:00,
2013-06-03 14:05:00,84.4,63.2,30.00,NW,315,28.9,28.9,48,0.00,,,0.00,WUHU21623XXSP,2013-06-03 19:05:00,
2013-06-03 14:06:00,84.4,62.6,30.00,NW,315,28.9,28.9,48,0.00,,,0.00,WUHU21623XXSP,2013-06-03 19:06:00,
2013-06-03 14:08:00,84.4,62.6,30.00,NW,315,28.9,28.9,48,0.00,,,0.00,WUHU21623XXSP,2013-06-03 19:08:00,
2013-06-03 14:10:00,84.4,62.6,29.99,NW,315,28.9,28.9,48,0.00,,,0.00,WUHU21623XXSP,2013-06-03 19:10:00,
2013-06-03 14:11:00,84.4,62.6,29.99,NW,315,28.9,28.9,48,0.00,,,0.00,WUHU21623XXSP,2013-06-03 19:11:00,
2013-06-03 14:12:00,84.4,62.6,29.99,NW,315,28.9,28.9,48,0.00,,,0.00,WUHU21623XXSP,2013-06-03 19:12:00,
2013-06-03 14:13:00,84.4,62.6,29.99,NW,315,28.9,28.9,48,0.00,,,0.00,WUHU21623XXSP,2013-06-03 19:13:00,
2013-06-03 14:15:00,84.4,62.6,29.99,NW,315,28.9,28.9,48,0.00,,,0.00,WUHU21623XXSP,2013-06-03 19:15:00,
2013-06-03 14:17:00,84.6,62.7,29.99,NW,315,28.9,28.9,48,0.00,,,0.00,WUHU21623XXSP,2013-06-03 19:17:00,
2013-06-03 14:18:00,84.4,62.6,29.99,NW,315,28.9,28.9,48,0.00,,,0.00,WUHU21623XXSP,2013-06-03 19:18:00,
2013-06-03 14:20:00,84.4,62.6,29.99,NW,315,28.9,28.9,48,0.00,,,0.00,WUHU21623XXSP,2013-06-03 19:20:00,
2013-06-03 14:23:00,84.4,62.6,29.99,NW,315,28.9,28.9,48,0.00,,,0.00,WUHU21623XXSP,2013-06-03 19:23:00,
2013-06-03 14:24:00,84.4,62.6,29.99,NW,315,28.9,28.9,48,0.00,,,0.00,WUHU21623XXSP,2013-06-03 19:24:00,
2013-06-03 14:26:00,84.4,62.6,29.99,NW,315,28.9,28.9,48,0.00,,,0.00,WUHU21623XXSP,2013-06-03 19:26:00,
2013-06-03 14:28:00,84.4,62.6,29.99,NW,315,28.9,28.9,48,0.00,,,0.00,WUHU21623XXSP,2013-06-03 19:28:00,
2013-06-03 14:29:00,84.2,62.4,29.99,NW,315,28.9,28.9,48,0.00,,,0.00,WUHU21623XXSP,2013-06-03 19:29:00,
2013-06-03 14:32:00,84.4,62.6,29.99,NW,315,28.9,28.9,48,0.00,,,0.00,WUHU21623XXSP,2013-06-03 19:32:00,
2013-06-03 14:33:00,84.4,62.6,29.99,NW,315,28.9,28.9,48,0.00,,,0.00,WUHU21623XXSP,2013-06-03 19:33:00,
2013-06-03 14:34:00,84.6,62.6,29.99,NW,315,28.9,28.9,48,0.00,,,0.00,WUHU21623XXSP,2013-06-03 19:34:00,
2013-06-03 14:37:00,84.7,62.9,29.99,NW,315,28.9,28.9,48,0.00,,,0.00,WUHU21623XXSP,2013-06-03 19:37:00,
2013-06-03 14:38:00,84.7,62.9,29.99,NW,315,28.9,28.9,48,0.00,,,0.00,WUHU21623XXSP,2013-06-03 19:38:00,
2013-06-03 14:39:00,84.9,63.1,29.99,NW,315,28.9,28.9,48,0.00,,,0.00,WUHU21623XXSP,2013-06-03 19:39:00,
2013-06-03 14:42:00,84.9,62.4,29.98,NW,315,28.9,28.9,47,0.00,,,0.00,WUHU21623XXSP,2013-06-03 19:42:00,
2013-06-03 14:43:00,84.9,62.4,29.98,NW,315,28.9,28.9,47,0.00,,,0.00,WUHU21623XXSP,2013-06-03 19:43:00,
2013-06-03 14:44:00,84.9,62.4,29.98,NW,315,28.9,28.9,47,0.00,,,0.00,WUHU21623XXSP,2013-06-03 19:44:00,
2013-06-03 14:45:00,84.9,62.4,29.98,NW,315,28.9,28.9,47,0.00,,,0.00,WUHU21623XXSP,2013-06-03 19:45:00,
2013-06-03 14:47:00,85.1,62.6,29.98,NW,315,28.9,28.9,47,0.00,,,0.00,WUHU21623XXSP,2013-06-03 19:47:00,
2013-06-03 14:48:00,85.1,62.6,29.98,NW,315,28.9,28.9,47,0.00,,,0.00,WUHU21623XXSP,2013-06-03 19:48:00,
2013-06-03 14:49:00,85.3,62.8,29.98,NW,315,28.9,28.9,47,0.00,,,0.00,WUHU21623XXSP,2013-06-03 19:49:00,
2013-06-03 14:50:00,85.3,62.8,29.98,NW,315,28.9,28.9,47,0.00,,,0.00,WUHU21623XXSP,2013-06-03 19:50:00,
2013-06-03 14:52:00,85.3,62.8,29.98,NW,315,28.9,28.9,47,0.00,,,0.00,WUHU21623XXSP,2013-06-03 19:52:00,
2013-06-03 14:54:00,85.3,62.8,29.98,NW,315,28.9,28.9,47,0.00,,,0.00,WUHU21623XXSP,2013-06-03 19:54:00,
2013-06-03 14:55:00,85.3,62.8,29.98,NW,315,28.9,28.9,47,0.00,,,0.00,WUHU21623XXSP,2013-06-03 19:55:00,
2013-06-03 14:58:00,85.5,62.9,29.97,NW,315,28.9,28.9,47,0.00,,,0.00,WUHU21623XXSP,2013-06-03 19:58:00,
2013-06-03 14:59:00,85.5,62.9,29.97,NW,315,28.9,28.9,47,0.00,,,0.00,WUHU21623XXSP,2013-06-03 19:59:00,
2013-06-03 15:00:00,85.5,62.9,29.98,NW,315,28.9,28.9,47,0.00,,,0.00,WUHU21623XXSP,2013-06-03 20:00:00,
2013-06-03 15:01:00,85.5,62.9,29.98,NW,315,28.9,28.9,47,0.00,,,0.00,WUHU21623XXSP,2013-06-03 20:01:00,
2013-06-03 15:02:00,85.6,63.1,29.97,NW,315,28.9,28.9,47,0.00,,,0.00,WUHU21623XXSP,2013-06-03 20:02:00,
2013-06-03 15:03:00,85.6,63.1,29.97,NW,315,28.9,28.9,47,0.00,,,0.00,WUHU21623XXSP,2013-06-03 20:03:00,
2013-06-03 15:04:00,85.6,63.1,29.97,NW,315,28.9,28.9,47,0.00,,,0.00,WUHU21623XXSP,2013-06-03 20:04:00,
2013-06-03 15:05:00,85.6,63.1,29.98,NW,315,28.9,28.9,47,0.00,,,0.00,WUHU21623XXSP,2013-06-03 20:05:00,
2013-06-03 15:06:00,85.6,63.1,29.97,NW,315,28.9,28.9,47,0.00,,,0.00,WUHU21623XXSP,2013-06-03 20:06:00,
2013-06-03 15:07:00,85.6,63.1,29.98,NW,315,28.9,28.9,47,0.00,,,0.00,WUHU21623XXSP,2013-06-03 20:07:00,
2013-06-03 15:08:00,85.6,63.1,29.98,NW,315,28.9,28.9,47,0.00,,,0.00,WUHU21623XXSP,2013-06-03 20:08:00,
2013-06-03 15:09:00,85.6,63.1,29.97,NW,315,28.9,28.9,47,0.00,,,0.00,WUHU21623XXSP,2013-06-03 20:09:00,
2013-06-03 15:11:00,85.6,63.1,29.98,NW,315,28.9,28.9,46,0.00,,,0.00,WUHU21623XXSP,2013-06-03 20:11:00,
2013-06-03 15:12:00,85.8,62.6,29.98,NW,315,28.9,28.9,46,0.00,,,0.00,WUHU21623XXSP,2013-06-03 20:12:00,
2013-06-03 15:13:00,85.8,62.6,29.98,NW,315,28.9,28.9,46,0.00,,,0.00,WUHU21623XXSP,2013-06-03 20:13:00,
2013-06-03 15:15:00,85.8,62.6,29.97,NW,315,28.9,28.9,46,0.00,,,0.00,WUHU21623XXSP,2013-06-03 20:15:00,
2013-06-03 15:16:00,85.8,62.0,29.97,NW,315,28.9,28.9,45,0.00,,,0.00,WUHU21623XXSP,2013-06-03 20:16:00,
2013-06-03 15:17:00,85.8,62.0,29.97,NW,315,28.9,28.9,45,0.00,,,0.00,WUHU21623XXSP,2013-06-03 20:17:00,
2013-06-03 15:18:00,86.2,62.3,29.97,NW,315,28.9,28.9,45,0.00,,,0.00,WUHU21623XXSP,2013-06-03 20:18:00,
2013-06-03 15:20:00,86.2,62.3,29.97,NW,315,28.9,28.9,45,0.00,,,0.00,WUHU21623XXSP,2013-06-03 20:20:00,
2013-06-03 15:21:00,86.4,62.5,29.97,NW,315,28.9,28.9,45,0.00,,,0.00,WUHU21623XXSP,2013-06-03 20:21:00,
2013-06-03 15:22:00,86.4,62.5,29.97,NW,315,28.9,28.9,45,0.00,,,0.00,WUHU21623XXSP,2013-06-03 20:22:00,
2013-06-03 15:23:00,86.4,62.5,29.97,NW,315,28.9,28.9,45,0.00,,,0.00,WUHU21623XXSP,2013-06-03 20:23:00,
2013-06-03 15:25:00,86.5,62.6,29.97,NW,315,28.9,28.9,45,0.00,,,0.00,WUHU21623XXSP,2013-06-03 20:25:00,
2013-06-03 15:26:00,86.5,62.6,29.97,NW,315,28.9,28.9,45,0.00,,,0.00,WUHU21623XXSP,2013-06-03 20:26:00,
2013-06-03 15:27:00,86.5,62.6,29.97,NW,315,28.9,28.9,45,0.00,,,0.00,WUHU21623XXSP,2013-06-03 20:27:00,
2013-06-03 15:28:00,86.5,62.6,29.97,NW,315,28.9,28.9,45,0.00,,,0.00,WUHU21623XXSP,2013-06-03 20:28:00,
2013-06-03 15:31:00,86.5,62.6,29.97,NW,315,28.9,28.9,45,0.00,,,0.00,WUHU21623XXSP,2013-06-03 20:31:00,
2013-06-03 15:32:00,86.5,62.6,29.97,NW,315,28.9,28.9,45,0.00,,,0.00,WUHU21623XXSP,2013-06-03 20:32:00,
2013-06-03 15:33:00,86.7,62.8,29.97,NW,315,28.9,28.9,45,0.00,,,0.00,WUHU21623XXSP,2013-06-03 20:33:00,
2013-06-03 15:36:00,86.9,63.0,29.96,NW,315,28.9,28.9,45,0.00,,,0.00,WUHU21623XXSP,2013-06-03 20:36:00,
2013-06-03 15:37:00,86.9,63.0,29.96,NW,315,28.9,28.9,45,0.00,,,0.00,WUHU21623XXSP,2013-06-03 20:37:00,
2013-06-03 15:38:00,86.9,63.0,29.96,NW,315,0.2,28.9,45,0.00,,,0.00,WUHU21623XXSP,2013-06-03 20:38:00,
2013-06-03 15:39:00,86.9,63.0,29.96,NW,315,0.2,28.9,45,0.00,,,0.00,WUHU21623XXSP,2013-06-03 20:39:00,
2013-06-03 15:41:00,86.9,63.0,29.96,NW,315,28.9,28.9,45,0.00,,,0.00,WUHU21623XXSP,2013-06-03 20:41:00,
2013-06-03 15:42:00,86.9,63.0,29.96,NW,315,28.9,28.9,45,0.00,,,0.00,WUHU21623XXSP,2013-06-03 20:42:00,
2013-06-03 15:43:00,86.9,63.0,29.96,NW,315,28.9,28.9,45,0.00,,,0.00,WUHU21623XXSP,2013-06-03 20:43:00,
2013-06-03 15:44:00,86.9,63.0,29.96,NW,315,28.9,28.9,45,0.00,,,0.00,WUHU21623XXSP,2013-06-03 20:44:00,
2013-06-03 15:47:00,87.1,63.1,29.96,NW,315,28.9,28.9,45,0.00,,,0.00,WUHU21623XXSP,2013-06-03 20:47:00,
2013-06-03 15:48:00,87.1,63.1,29.96,NW,315,28.9,28.9,45,0.00,,,0.00,WUHU21623XXSP,2013-06-03 20:48:00,
2013-06-03 15:49:00,87.1,63.1,29.96,NW,315,28.9,28.9,45,0.00,,,0.00,WUHU21623XXSP,2013-06-03 20:49:00,
2013-06-03 15:52:00,87.1,63.1,29.96,NW,315,28.9,28.9,45,0.00,,,0.00,WUHU21623XXSP,2013-06-03 20:52:00,
2013-06-03 15:53:00,87.1,63.1,29.96,NW,315,28.9,28.9,45,0.00,,,0.00,WUHU21623XXSP,2013-06-03 20:53:00,
2013-06-03 15:54:00,87.1,63.1,29.96,NW,315,28.9,28.9,45,0.00,,,0.00,WUHU21623XXSP,2013-06-03 20:54:00,
2013-06-03 15:57:00,87.1,63.1,29.96,NW,315,28.9,28.9,45,0.00,,,0.00,WUHU21623XXSP,2013-06-03 20:57:00,
2013-06-03 15:58:00,87.1,63.1,29.96,NW,315,28.9,28.9,45,0.00,,,0.00,WUHU21623XXSP,2013-06-03 20:58:00,
2013-06-03 15:59:00,87.1,63.1,29.96,NW,315,28.9,28.9,45,0.00,,,0.00,WUHU21623XXSP,2013-06-03 20:59:00,
2013-06-03 16:03:00,87.1,63.1,29.96,NW,315,28.9,28.9,45,0.00,,,0.00,WUHU21623XXSP,2013-06-03 21:03:00,
2013-06-03 16:04:00,87.1,63.1,29.96,NW,315,28.9,28.9,45,0.00,,,0.00,WUHU21623XXSP,2013-06-03 21:04:00,
2013-06-03 16:08:00,87.4,63.4,29.96,NW,315,28.9,28.9,45,0.00,,,0.00,WUHU21623XXSP,2013-06-03 21:08:00,
2013-06-03 16:09:00,87.4,63.4,29.96,NW,315,28.9,28.9,45,0.00,,,0.00,WUHU21623XXSP,2013-06-03 21:09:00,
2013-06-03 16:13:00,87.6,63.6,29.95,NW,315,28.9,28.9,45,0.00,,,0.00,WUHU21623XXSP,2013-06-03 21:13:00,
2013-06-03 16:14:00,87.6,63.6,29.95,NW,315,28.9,28.9,45,0.00,,,0.00,WUHU21623XXSP,2013-06-03 21:14:00,
2013-06-03 16:18:00,87.6,63.6,29.95,NW,315,28.9,28.9,45,0.00,,,0.00,WUHU21623XXSP,2013-06-03 21:18:00,
2013-06-03 16:19:00,87.6,63.6,29.95,NW,315,28.9,28.9,45,0.00,,,0.00,WUHU21623XXSP,2013-06-03 21:19:00,
2013-06-03 16:20:00,87.6,63.6,29.95,NW,315,28.9,28.9,45,0.00,,,0.00,WUHU21623XXSP,2013-06-03 21:20:00,
2013-06-03 16:23:00,87.6,63.6,29.95,NW,315,28.9,28.9,45,0.00,,,0.00,WUHU21623XXSP,2013-06-03 21:23:00,
2013-06-03 16:24:00,88.0,63.9,29.94,NW,315,28.9,28.9,45,0.00,,,0.00,WUHU21623XXSP,2013-06-03 21:24:00,
2013-06-03 16:25:00,88.0,63.9,29.94,NW,315,0.2,28.9,45,0.00,,,0.00,WUHU21623XXSP,2013-06-03 21:25:00,
2013-06-03 16:28:00,88.0,63.9,29.94,NW,315,28.9,28.9,45,0.00,,,0.00,WUHU21623XXSP,2013-06-03 21:28:00,
2013-06-03 16:30:00,88.0,63.9,29.94,NW,315,28.9,28.9,45,0.00,,,0.00,WUHU21623XXSP,2013-06-03 21:30:00,
2013-06-03 16:31:00,88.0,63.9,29.94,NW,315,0.2,28.9,45,0.00,,,0.00,WUHU21623XXSP,2013-06-03 21:31:00,
2013-06-03 16:33:00,88.0,63.3,29.94,NW,315,28.9,28.9,44,0.00,,,0.00,WUHU21623XXSP,2013-06-03 21:33:00,
2013-06-03 16:35:00,88.0,63.3,29.94,NW,315,28.9,28.9,44,0.00,,,0.00,WUHU21623XXSP,2013-06-03 21:35:00,
2013-06-03 16:36:00,88.0,63.3,29.94,NW,315,28.9,28.9,44,0.00,,,0.00,WUHU21623XXSP,2013-06-03 21:36:00,
2013-06-03 16:38:00,88.2,63.4,29.94,NW,315,28.9,28.9,44,0.00,,,0.00,WUHU21623XXSP,2013-06-03 21:38:00,
2013-06-03 16:40:00,88.2,63.4,29.94,NW,315,28.9,28.9,44,0.00,,,0.00,WUHU21623XXSP,2013-06-03 21:40:00,
2013-06-03 16:41:00,88.2,63.4,29.94,NW,315,28.9,28.9,44,0.00,,,0.00,WUHU21623XXSP,2013-06-03 21:41:00,
2013-06-03 16:44:00,88.2,63.4,29.94,NW,315,28.9,28.9,44,0.00,,,0.00,WUHU21623XXSP,2013-06-03 21:44:00,
2013-06-03 16:45:00,88.2,63.4,29.94,NW,315,28.9,28.9,44,0.00,,,0.00,WUHU21623XXSP,2013-06-03 21:45:00,
2013-06-03 16:46:00,88.2,63.4,29.94,NW,315,28.9,28.9,44,0.00,,,0.00,WUHU21623XXSP,2013-06-03 21:46:00,
2013-06-03 16:47:00,88.3,63.6,29.94,NW,315,0.2,28.9,44,0.00,,,0.00,WUHU21623XXSP,2013-06-03 21:47:00,
2013-06-03 16:49:00,88.3,63.6,29.94,NW,315,0.2,28.9,44,0.00,,,0.00,WUHU21623XXSP,2013-06-03 21:49:00,
2013-06-03 16:50:00,88.3,63.6,29.94,NW,315,28.9,28.9,44,0.00,,,0.00,WUHU21623XXSP,2013-06-03 21:50:00,
2013-06-03 16:51:00,88.3,63.6,29.94,NW,315,28.9,28.9,44,0.00,,,0.00,WUHU21623XXSP,2013-06-03 21:51:00,
2013-06-03 16:52:00,88.3,63.6,29.94,NW,315,28.9,28.9,44,0.00,,,0.00,WUHU21623XXSP,2013-06-03 21:52:00,
2013-06-03 16:54:00,88.3,63.6,29.94,NW,315,0.2,28.9,44,0.00,,,0.00,WUHU21623XXSP,2013-06-03 21:54:00,
2013-06-03 16:55:00,88.3,62.9,29.94,NW,315,28.9,28.9,43,0.00,,,0.00,WUHU21623XXSP,2013-06-03 21:55:00,
2013-06-03 16:56:00,88.3,62.9,29.94,NW,315,28.9,28.9,43,0.00,,,0.00,WUHU21623XXSP,2013-06-03 21:56:00,
2013-06-03 16:57:00,88.3,62.9,29.94,NW,315,28.9,28.9,43,0.00,,,0.00,WUHU21623XXSP,2013-06-03 21:57:00,
2013-06-03 16:59:00,88.3,62.9,29.94,NW,315,28.9,28.9,43,0.00,,,0.00,WUHU21623XXSP,2013-06-03 21:59:00,
2013-06-03 17:00:00,88.3,62.3,29.94,NW,315,28.9,28.9,42,0.00,,,0.00,WUHU21623XXSP,2013-06-03 22:00:00,
2013-06-03 17:01:00,88.3,62.3,29.94,NW,315,28.9,28.9,42,0.00,,,0.00,WUHU21623XXSP,2013-06-03 22:01:00,
2013-06-03 17:02:00,88.5,63.1,29.94,NW,315,28.9,28.9,43,0.00,,,0.00,WUHU21623XXSP,2013-06-03 22:02:00,
2013-06-03 17:03:00,88.5,63.1,29.94,NW,315,28.9,28.9,43,0.00,,,0.00,WUHU21623XXSP,2013-06-03 22:03:00,
2013-06-03 17:05:00,88.3,62.9,29.94,NW,315,28.9,28.9,43,0.00,,,0.00,WUHU21623XXSP,2013-06-03 22:05:00,
2013-06-03 17:06:00,88.5,63.1,29.94,NW,315,28.9,28.9,43,0.00,,,0.00,WUHU21623XXSP,2013-06-03 22:06:00,
2013-06-03 17:08:00,88.5,63.1,29.94,North,0,0.0,28.9,43,0.00,,,0.00,WUHU21623XXSP,2013-06-03 22:08:00,
2013-06-03 17:10:00,88.5,62.5,29.94,NW,315,28.9,28.9,42,0.00,,,0.00,WUHU21623XXSP,2013-06-03 22:10:00,
2013-06-03 17:11:00,88.5,62.5,29.94,NW,315,28.9,28.9,42,0.00,,,0.00,WUHU21623XXSP,2013-06-03 22:11:00,
2013-06-03 17:12:00,88.5,62.5,29.94,NW,315,28.9,28.9,42,0.00,,,0.00,WUHU21623XXSP,2013-06-03 22:12:00,
2013-06-03 17:13:00,88.5,62.5,29.94,NW,315,28.9,28.9,42,0.00,,,0.00,WUHU21623XXSP,2013-06-03 22:13:00,
2013-06-03 17:14:00,88.5,62.5,29.93,NW,315,28.9,28.9,42,0.00,,,0.00,WUHU21623XXSP,2013-06-03 22:14:00,
2013-06-03 17:16:00,88.5,62.5,29.93,NW,315,28.9,28.9,42,0.00,,,0.00,WUHU21623XXSP,2013-06-03 22:16:00,
2013-06-03 17:17:00,88.5,62.5,29.93,NW,315,28.9,28.9,42,0.00,,,0.00,WUHU21623XXSP,2013-06-03 22:17:00,
2013-06-03 17:18:00,88.5,62.5,29.94,NW,315,28.9,28.9,42,0.00,,,0.00,WUHU21623XXSP,2013-06-03 22:18:00,
2013-06-03 17:19:00,88.5,62.5,29.94,NW,315,0.2,28.9,42,0.00,,,0.00,WUHU21623XXSP,2013-06-03 22:19:00,
2013-06-03 17:21:00,88.5,62.5,29.93,NW,315,28.9,28.9,42,0.00,,,0.00,WUHU21623XXSP,2013-06-03 22:21:00,
2013-06-03 17:22:00,88.5,62.5,29.93,NW,315,28.9,28.9,42,0.00,,,0.00,WUHU21623XXSP,2013-06-03 22:22:00,
2013-06-03 17:23:00,88.3,62.3,29.93,NW,315,28.9,28.9,42,0.00,,,0.00,WUHU21623XXSP,2013-06-03 22:23:00,
2013-06-03 17:24:00,88.5,62.5,29.93,NW,315,28.9,28.9,42,0.00,,,0.00,WUHU21623XXSP,2013-06-03 22:24:00,
2013-06-03 17:27:00,88.5,62.5,29.93,NW,315,28.9,28.9,42,0.00,,,0.00,WUHU21623XXSP,2013-06-03 22:27:00,
2013-06-03 17:28:00,88.3,62.3,29.94,NW,315,28.9,28.9,42,0.00,,,0.00,WUHU21623XXSP,2013-06-03 22:28:00,
2013-06-03 17:30:00,88.3,62.3,29.94,NW,315,28.9,28.9,42,0.00,,,0.00,WUHU21623XXSP,2013-06-03 22:30:00,
2013-06-03 17:32:00,88.3,62.3,29.94,NW,315,0.2,28.9,42,0.00,,,0.00,WUHU21623XXSP,2013-06-03 22:32:00,
2013-06-03 17:34:00,88.3,62.3,29.94,NW,315,28.9,28.9,42,0.00,,,0.00,WUHU21623XXSP,2013-06-03 22:34:00,
2013-06-03 17:35:00,88.3,62.3,29.93,NW,315,28.9,28.9,42,0.00,,,0.00,WUHU21623XXSP,2013-06-03 22:35:00,
2013-06-03 17:37:00,88.3,62.3,29.93,NW,315,28.9,28.9,42,0.00,,,0.00,WUHU21623XXSP,2013-06-03 22:37:00,
2013-06-03 17:39:00,88.3,62.3,29.93,NW,315,28.9,28.9,42,0.00,,,0.00,WUHU21623XXSP,2013-06-03 22:39:00,
2013-06-03 17:40:00,88.3,62.3,29.93,NW,315,28.9,28.9,42,0.00,,,0.00,WUHU21623XXSP,2013-06-03 22:40:00,
2013-06-03 17:42:00,88.3,62.3,29.93,NW,315,28.9,28.9,42,0.00,,,0.00,WUHU21623XXSP,2013-06-03 22:42:00,
2013-06-03 17:43:00,88.3,62.3,29.93,NW,315,28.9,28.9,42,0.00,,,0.00,WUHU21623XXSP,2013-06-03 22:43:00,
2013-06-03 17:45:00,88.3,62.3,29.93,NW,315,28.9,28.9,42,0.00,,,0.00,WUHU21623XXSP,2013-06-03 22:45:00,
2013-06-03 17:47:00,88.3,62.3,29.93,NW,315,28.9,28.9,42,0.00,,,0.00,WUHU21623XXSP,2013-06-03 22:47:00,
2013-06-03 17:48:00,88.3,62.3,29.93,NW,315,0.2,28.9,42,0.00,,,0.00,WUHU21623XXSP,2013-06-03 22:48:00,
2013-06-03 17:50:00,88.3,62.3,29.93,NW,315,0.2,28.9,42,0.00,,,0.00,WUHU21623XXSP,2013-06-03 22:50:00,
2013-06-03 17:53:00,88.3,62.3,29.93,NW,315,28.9,28.9,42,0.00,,,0.00,WUHU21623XXSP,2013-06-03 22:53:00,
2013-06-03 17:55:00,88.3,62.9,29.93,NW,315,28.9,28.9,43,0.00,,,0.00,WUHU21623XXSP,2013-06-03 22:55:00,
2013-06-03 17:58:00,88.3,62.9,29.93,NW,315,28.9,28.9,43,0.00,,,0.00,WUHU21623XXSP,2013-06-03 22:58:00,
2013-06-03 18:00:00,88.3,62.9,29.93,NW,315,28.9,28.9,43,0.00,,,0.00,WUHU21623XXSP,2013-06-03 23:00:00,
2013-06-03 18:01:00,88.3,62.9,29.93,NW,315,28.9,28.9,43,0.00,,,0.00,WUHU21623XXSP,2013-06-03 23:01:00,
2013-06-03 18:03:00,88.3,62.9,29.93,NW,315,28.9,28.9,43,0.00,,,0.00,WUHU21623XXSP,2013-06-03 23:03:00,
2013-06-03 18:04:00,88.3,62.9,29.93,NW,315,28.9,28.9,43,0.00,,,0.00,WUHU21623XXSP,2013-06-03 23:04:00,
2013-06-03 18:05:00,88.3,62.9,29.93,NW,315,28.9,28.9,43,0.00,,,0.00,WUHU21623XXSP,2013-06-03 23:05:00,
2013-06-03 18:06:00,88.3,62.9,29.93,NW,315,28.9,28.9,43,0.00,,,0.00,WUHU21623XXSP,2013-06-03 23:06:00,
2013-06-03 18:09:00,88.3,62.9,29.93,NW,315,28.9,28.9,43,0.00,,,0.00,WUHU21623XXSP,2013-06-03 23:09:00,
2013-06-03 18:11:00,88.3,62.9,29.93,NW,315,28.9,28.9,43,0.00,,,0.00,WUHU21623XXSP,2013-06-03 23:11:00,
2013-06-03 18:12:00,88.3,62.9,29.93,NW,315,28.9,28.9,43,0.00,,,0.00,WUHU21623XXSP,2013-06-03 23:12:00,
2013-06-03 18:14:00,88.2,62.8,29.92,NW,315,0.2,28.9,43,0.00,,,0.00,WUHU21623XXSP,2013-06-03 23:14:00,
2013-06-03 18:15:00,88.2,62.8,29.92,NW,315,28.9,28.9,43,0.00,,,0.00,WUHU21623XXSP,2013-06-03 23:15:00,
2013-06-03 18:17:00,88.2,62.8,29.93,NW,315,28.9,28.9,43,0.00,,,0.00,WUHU21623XXSP,2013-06-03 23:17:00,
2013-06-03 18:19:00,88.2,62.8,29.92,NW,315,28.9,28.9,43,0.00,,,0.00,WUHU21623XXSP,2013-06-03 23:19:00,
2013-06-03 18:20:00,88.2,62.8,29.92,NW,315,28.9,28.9,43,0.00,,,0.00,WUHU21623XXSP,2013-06-03 23:20:00,
2013-06-03 18:22:00,88.0,62.7,29.92,NW,315,28.9,28.9,43,0.00,,,0.00,WUHU21623XXSP,2013-06-03 23:22:00,
2013-06-03 18:24:00,88.0,62.7,29.92,NW,315,28.9,28.9,43,0.00,,,0.00,WUHU21623XXSP,2013-06-03 23:24:00,
2013-06-03 18:25:00,88.0,62.7,29.92,NW,315,28.9,28.9,43,0.00,,,0.00,WUHU21623XXSP,2013-06-03 23:25:00,
2013-06-03 18:27:00,88.0,62.7,29.92,NW,315,28.9,28.9,43,0.00,,,0.00,WUHU21623XXSP,2013-06-03 23:27:00,
2013-06-03 18:29:00,88.0,62.7,29.92,NW,315,0.2,28.9,43,0.00,,,0.00,WUHU21623XXSP,2013-06-03 23:29:00,
2013-06-03 18:31:00,88.0,62.7,29.92,NW,315,28.9,28.9,43,0.00,,,0.00,WUHU21623XXSP,2013-06-03 23:31:00,
2013-06-03 18:32:00,88.0,62.7,29.92,NW,315,28.9,28.9,43,0.00,,,0.00,WUHU21623XXSP,2013-06-03 23:32:00,
2013-06-03 18:34:00,88.0,62.7,29.92,NW,315,28.9,28.9,43,0.00,,,0.00,WUHU21623XXSP,2013-06-03 23:34:00,
2013-06-03 18:35:00,88.0,62.7,29.92,NW,315,28.9,28.9,43,0.00,,,0.00,WUHU21623XXSP,2013-06-03 23:35:00,
2013-06-03 18:36:00,88.0,62.7,29.92,NW,315,0.2,28.9,43,0.00,,,0.00,WUHU21623XXSP,2013-06-03 23:36:00,
2013-06-03 18:37:00,88.0,62.7,29.92,NW,315,28.9,28.9,43,0.00,,,0.00,WUHU21623XXSP,2013-06-03 23:37:00,
2013-06-03 18:39:00,87.8,62.5,29.92,NW,315,0.2,28.9,43,0.00,,,0.00,WUHU21623XXSP,2013-06-03 23:39:00,
2013-06-03 18:41:00,87.8,62.5,29.92,NW,315,28.9,28.9,43,0.00,,,0.00,WUHU21623XXSP,2013-06-03 23:41:00,
2013-06-03 18:42:00,87.8,62.5,29.92,NW,315,28.9,28.9,43,0.00,,,0.00,WUHU21623XXSP,2013-06-03 23:42:00,
2013-06-03 18:43:00,87.8,62.5,29.92,NW,315,28.9,28.9,43,0.00,,,0.00,WUHU21623XXSP,2013-06-03 23:43:00,
2013-06-03 18:44:00,87.8,62.5,29.92,NW,315,28.9,28.9,43,0.00,,,0.00,WUHU21623XXSP,2013-06-03 23:44:00,
2013-06-03 18:47:00,87.6,62.3,29.92,NW,315,0.2,28.9,43,0.00,,,0.00,WUHU21623XXSP,2013-06-03 23:47:00,
2013-06-03 18:48:00,87.6,62.3,29.92,NW,315,28.9,28.9,43,0.00,,,0.00,WUHU21623XXSP,2013-06-03 23:48:00,
2013-06-03 18:50:00,87.8,62.3,29.92,NW,315,28.9,28.9,43,0.00,,,0.00,WUHU21623XXSP,2013-06-03 23:50:00,
2013-06-03 18:52:00,87.6,62.3,29.92,NW,315,28.9,28.9,43,0.00,,,0.00,WUHU21623XXSP,2013-06-03 23:52:00,
2013-06-03 18:53:00,87.6,62.3,29.92,NW,315,28.9,28.9,43,0.00,,,0.00,WUHU21623XXSP,2013-06-03 23:53:00,
2013-06-03 18:55:00,87.6,62.3,29.92,NW,315,28.9,28.9,43,0.00,,,0.00,WUHU21623XXSP,2013-06-03 23:55:00,
2013-06-03 18:57:00,87.6,61.7,29.92,NW,315,0.2,28.9,42,0.00,,,0.00,WUHU21623XXSP,2013-06-03 23:57:00,
2013-06-03 18:58:00,87.6,61.7,29.92,NW,315,28.9,28.9,42,0.00,,,0.00,WUHU21623XXSP,2013-06-03 23:58:00,
2013-06-03 19:00:00,87.6,61.7,29.92,NW,315,28.9,28.9,42,0.00,,,0.00,WUHU21623XXSP,2013-06-04 00:00:00,
2013-06-03 19:02:00,87.6,61.7,29.92,NW,315,28.9,28.9,42,0.00,,,0.00,WUHU21623XXSP,2013-06-04 00:02:00,
2013-06-03 19:03:00,87.6,61.7,29.92,NW,315,28.9,28.9,42,0.00,,,0.00,WUHU21623XXSP,2013-06-04 00:03:00,
2013-06-03 19:06:00,87.6,61.7,29.92,NW,315,28.9,43.2,42,0.00,,,0.00,WUHU21623XXSP,2013-06-04 00:06:00,
2013-06-03 19:07:00,87.6,61.7,29.92,NW,315,28.9,43.2,42,0.00,,,0.00,WUHU21623XXSP,2013-06-04 00:07:00,
2013-06-03 19:08:00,87.6,61.7,29.92,NW,315,28.9,43.2,42,0.00,,,0.00,WUHU21623XXSP,2013-06-04 00:08:00,
2013-06-03 19:09:00,87.6,61.7,29.92,NW,315,28.9,43.2,42,0.00,,,0.00,WUHU21623XXSP,2013-06-04 00:09:00,
2013-06-03 19:12:00,87.4,61.6,29.92,NW,315,28.9,43.2,42,0.00,,,0.00,WUHU21623XXSP,2013-06-04 00:12:00,
2013-06-03 19:13:00,87.6,61.7,29.92,NW,315,28.9,28.9,42,0.00,,,0.00,WUHU21623XXSP,2013-06-04 00:13:00,
2013-06-03 19:14:00,87.6,61.7,29.93,NW,315,28.9,28.9,42,0.00,,,0.00,WUHU21623XXSP,2013-06-04 00:14:00,
2013-06-03 19:17:00,87.4,61.6,29.92,North,0,0.0,0.0,42,0.00,,,0.00,WUHU21623XXSP,2013-06-04 00:17:00,
2013-06-03 19:19:00,87.4,61.6,29.92,North,0,0.0,0.0,42,0.00,,,0.00,WUHU21623XXSP,2013-06-04 00:19:00,
2013-06-03 19:22:00,87.4,64.7,29.92,North,0,0.0,0.0,47,0.00,,,0.00,WUHU21623XXSP,2013-06-04 00:22:00,
2013-06-03 19:24:00,87.6,63.6,29.92,North,0,0.0,0.0,45,0.00,,,0.00,WUHU21623XXSP,2013-06-04 00:24:00,
2013-06-03 19:25:00,87.6,61.7,29.92,North,0,0.0,0.0,42,0.00,,,0.00,WUHU21623XXSP,2013-06-04 00:25:00,
2013-06-03 19:27:00,87.6,61.7,29.92,North,0,0.0,0.0,42,0.00,,,0.00,WUHU21623XXSP,2013-06-04 00:27:00,
2013-06-03 19:29:00,87.6,61.1,29.92,North,0,0.0,0.0,41,0.00,,,0.00,WUHU21623XXSP,2013-06-04 00:29:00,
2013-06-03 19:30:00,87.6,61.1,29.92,North,0,0.0,0.0,41,0.00,,,0.00,WUHU21623XXSP,2013-06-04 00:30:00,
2013-06-03 19:33:00,87.4,60.9,29.92,North,0,0.0,0.0,41,0.00,,,0.00,WUHU21623XXSP,2013-06-04 00:33:00,
2013-06-03 19:34:00,87.4,60.9,29.92,North,0,0.0,0.0,41,0.00,,,0.00,WUHU21623XXSP,2013-06-04 00:34:00,
2013-06-03 19:35:00,87.4,60.9,29.92,North,0,0.0,0.0,41,0.00,,,0.00,WUHU21623XXSP,2013-06-04 00:35:00,
2013-06-03 19:38:00,87.1,60.6,29.93,North,0,0.0,0.0,41,0.00,,,0.00,WUHU21623XXSP,2013-06-04 00:38:00,
2013-06-03 19:39:00,87.1,60.6,29.93,North,0,0.0,0.0,41,0.00,,,0.00,WUHU21623XXSP,2013-06-04 00:39:00,
2013-06-03 19:40:00,87.1,60.6,29.93,North,0,0.0,0.0,41,0.00,,,0.00,WUHU21623XXSP,2013-06-04 00:40:00,
2013-06-03 19:41:00,87.1,60.6,29.93,North,0,0.0,0.0,41,0.00,,,0.00,WUHU21623XXSP,2013-06-04 00:41:00,
2013-06-03 19:43:00,87.1,60.6,29.93,North,0,0.0,0.0,41,0.00,,,0.00,WUHU21623XXSP,2013-06-04 00:43:00,
2013-06-03 19:44:00,87.1,60.6,29.93,North,0,0.0,0.0,41,0.00,,,0.00,WUHU21623XXSP,2013-06-04 00:44:00,
2013-06-03 19:46:00,87.1,60.6,29.93,North,0,0.0,0.0,41,0.00,,,0.00,WUHU21623XXSP,2013-06-04 00:46:00,
2013-06-03 19:48:00,86.9,60.4,29.93,North,0,0.0,0.0,41,0.00,,,0.00,WUHU21623XXSP,2013-06-04 00:48:00,
2013-06-03 19:49:00,86.9,60.4,29.93,North,0,0.0,0.0,41,0.00,,,0.00,WUHU21623XXSP,2013-06-04 00:49:00,
2013-06-03 19:50:00,86.9,60.4,29.93,North,0,0.0,0.0,41,0.00,,,0.00,WUHU21623XXSP,2013-06-04 00:50:00,
2013-06-03 19:51:00,86.7,60.3,29.93,North,0,0.0,0.0,41,0.00,,,0.00,WUHU21623XXSP,2013-06-04 00:51:00,
2013-06-03 19:53:00,86.7,59.6,29.93,North,0,0.0,0.0,40,0.00,,,0.00,WUHU21623XXSP,2013-06-04 00:53:00,
2013-06-03 19:54:00,86.7,59.6,29.93,North,0,0.0,0.0,40,0.00,,,0.00,WUHU21623XXSP,2013-06-04 00:54:00,
2013-06-03 19:55:00,86.7,58.8,29.93,North,0,0.0,0.0,39,0.00,,,0.00,WUHU21623XXSP,2013-06-04 00:55:00,
2013-06-03 19:57:00,86.7,58.8,29.93,North,0,0.0,0.0,39,0.00,,,0.00,WUHU21623XXSP,2013-06-04 00:57:00,
2013-06-03 19:58:00,86.7,58.8,29.93,North,0,0.0,0.0,39,0.00,,,0.00,WUHU21623XXSP,2013-06-04 00:58:00,
2013-06-03 19:59:00,86.7,58.8,29.93,North,0,0.0,0.0,39,0.00,,,0.00,WUHU21623XXSP,2013-06-04 00:59:00,
2013-06-03 20:00:00,86.7,58.8,29.93,North,0,0.0,0.0,39,0.00,,,0.00,WUHU21623XXSP,2013-06-04 01:00:00,
2013-06-03 20:02:00,86.5,58.7,29.93,North,0,0.0,0.0,39,0.00,,,0.00,WUHU21623XXSP,2013-06-04 01:02:00,
2013-06-03 20:04:00,86.5,58.7,29.93,North,0,0.0,0.0,39,0.00,,,0.00,WUHU21623XXSP,2013-06-04 01:04:00,
2013-06-03 20:05:00,86.5,58.7,29.93,North,0,0.0,0.0,39,0.00,,,0.00,WUHU21623XXSP,2013-06-04 01:05:00,
2013-06-03 20:07:00,86.4,58.5,29.93,North,0,0.0,0.0,39,0.00,,,0.00,WUHU21623XXSP,2013-06-04 01:07:00,
2013-06-03 20:09:00,86.4,58.5,29.93,North,0,0.0,0.0,39,0.00,,,0.00,WUHU21623XXSP,2013-06-04 01:09:00,
2013-06-03 20:10:00,86.4,58.5,29.93,North,0,0.0,0.0,39,0.00,,,0.00,WUHU21623XXSP,2013-06-04 01:10:00,
2013-06-03 20:11:00,86.4,58.5,29.93,North,0,0.0,0.0,39,0.00,,,0.00,WUHU21623XXSP,2013-06-04 01:11:00,
2013-06-03 20:12:00,86.4,58.5,29.93,North,0,0.0,0.0,39,0.00,,,0.00,WUHU21623XXSP,2013-06-04 01:12:00,
2013-06-03 20:13:00,86.4,58.5,29.93,North,0,0.0,0.0,39,0.00,,,0.00,WUHU21623XXSP,2013-06-04 01:13:00,
2013-06-03 20:14:00,86.2,58.4,29.93,North,0,0.0,0.0,39,0.00,,,0.00,WUHU21623XXSP,2013-06-04 01:14:00,
2013-06-03 20:15:00,86.2,58.4,29.93,North,0,0.0,0.0,39,0.00,,,0.00,WUHU21623XXSP,2013-06-04 01:15:00,
2013-06-03 20:17:00,86.2,58.4,29.93,North,0,0.0,0.0,39,0.00,,,0.00,WUHU21623XXSP,2013-06-04 01:17:00,
2013-06-03 20:18:00,86.2,58.4,29.93,North,0,0.0,0.0,39,0.00,,,0.00,WUHU21623XXSP,2013-06-04 01:18:00,
2013-06-03 20:19:00,86.2,58.4,29.93,North,0,0.0,0.0,39,0.00,,,0.00,WUHU21623XXSP,2013-06-04 01:19:00,
2013-06-03 20:22:00,86.2,58.4,29.93,North,0,0.0,0.0,39,0.00,,,0.00,WUHU21623XXSP,2013-06-04 01:22:00,
2013-06-03 20:23:00,85.8,58.0,29.93,North,0,0.0,0.0,39,0.00,,,0.00,WUHU21623XXSP,2013-06-04 01:23:00,
2013-06-03 20:25:00,85.8,58.0,29.93,North,0,0.0,0.0,39,0.00,,,0.00,WUHU21623XXSP,2013-06-04 01:25:00,
2013-06-03 20:27:00,85.8,58.0,29.92,North,0,0.0,0.0,39,0.00,,,0.00,WUHU21623XXSP,2013-06-04 01:27:00,
2013-06-03 20:28:00,85.8,58.0,29.92,North,0,0.0,0.0,39,0.00,,,0.00,WUHU21623XXSP,2013-06-04 01:28:00,
2013-06-03 20:30:00,85.8,58.0,29.93,North,0,0.0,0.0,39,0.00,,,0.00,WUHU21623XXSP,2013-06-04 01:30:00,
2013-06-03 20:32:00,85.8,58.0,29.93,North,0,0.0,0.0,39,0.00,,,0.00,WUHU21623XXSP,2013-06-04 01:32:00,
2013-06-03 20:33:00,85.8,58.0,29.93,North,0,0.0,0.0,39,0.00,,,0.00,WUHU21623XXSP,2013-06-04 01:33:00,
2013-06-03 20:34:00,85.6,57.9,29.93,North,0,0.0,0.0,39,0.00,,,0.00,WUHU21623XXSP,2013-06-04 01:34:00,
2013-06-03 20:35:00,85.6,57.9,29.93,North,0,0.0,0.0,39,0.00,,,0.00,WUHU21623XXSP,2013-06-04 01:35:00,
2013-06-03 20:38:00,85.6,57.9,29.93,North,0,0.0,0.0,39,0.00,,,0.00,WUHU21623XXSP,2013-06-04 01:38:00,
2013-06-03 20:39:00,85.6,57.9,29.93,North,0,0.0,0.0,39,0.00,,,0.00,WUHU21623XXSP,2013-06-04 01:39:00,
2013-06-03 20:40:00,85.6,57.9,29.93,North,0,0.0,0.0,39,0.00,,,0.00,WUHU21623XXSP,2013-06-04 01:40:00,
2013-06-03 20:43:00,85.5,57.7,29.93,North,0,0.0,0.0,39,0.00,,,0.00,WUHU21623XXSP,2013-06-04 01:43:00,
2013-06-03 20:44:00,85.3,57.6,29.93,North,0,0.0,0.0,39,0.00,,,0.00,WUHU21623XXSP,2013-06-04 01:44:00,
2013-06-03 20:46:00,85.3,57.6,29.93,North,0,0.0,0.0,39,0.00,,,0.00,WUHU21623XXSP,2013-06-04 01:46:00,
2013-06-03 20:48:00,85.3,57.6,29.93,North,0,0.0,0.0,39,0.00,,,0.00,WUHU21623XXSP,2013-06-04 01:48:00,
2013-06-03 20:49:00,85.3,57.6,29.93,North,0,0.0,0.0,39,0.00,,,0.00,WUHU21623XXSP,2013-06-04 01:49:00,
2013-06-03 20:51:00,85.1,58.2,29.93,North,0,0.0,0.0,40,0.00,,,0.00,WUHU21623XXSP,2013-06-04 01:51:00,
2013-06-03 20:53:00,85.1,58.2,29.93,North,0,0.0,0.0,40,0.00,,,0.00,WUHU21623XXSP,2013-06-04 01:53:00,
2013-06-03 20:54:00,85.1,58.2,29.93,North,0,0.0,0.0,40,0.00,,,0.00,WUHU21623XXSP,2013-06-04 01:54:00,
2013-06-03 20:56:00,84.9,58.0,29.93,North,0,0.0,0.0,40,0.00,,,0.00,WUHU21623XXSP,2013-06-04 01:56:00,
2013-06-03 20:58:00,84.9,58.0,29.93,North,0,0.0,0.0,40,0.00,,,0.00,WUHU21623XXSP,2013-06-04 01:58:00,
2013-06-03 20:59:00,84.9,58.0,29.93,North,0,0.0,0.0,40,0.00,,,0.00,WUHU21623XXSP,2013-06-04 01:59:00,
2013-06-03 21:00:00,84.9,58.7,29.93,North,0,0.0,0.0,41,0.00,,,0.00,WUHU21623XXSP,2013-06-04 02:00:00,
2013-06-03 21:02:00,84.7,59.1,29.93,North,0,0.0,0.0,42,0.00,,,0.00,WUHU21623XXSP,2013-06-04 02:02:00,
2013-06-03 21:03:00,84.7,59.1,29.94,North,0,0.0,0.0,42,0.00,,,0.00,WUHU21623XXSP,2013-06-04 02:03:00,
2013-06-03 21:04:00,84.7,59.1,29.94,North,0,0.0,0.0,42,0.00,,,0.00,WUHU21623XXSP,2013-06-04 02:04:00,
2013-06-03 21:05:00,84.7,59.1,29.94,North,0,0.0,0.0,42,0.00,,,0.00,WUHU21623XXSP,2013-06-04 02:05:00,
2013-06-03 21:07:00,84.7,59.1,29.94,North,0,0.0,0.0,42,0.00,,,0.00,WUHU21623XXSP,2013-06-04 02:07:00,
2013-06-03 21:09:00,84.7,59.8,29.94,North,0,0.0,0.0,43,0.00,,,0.00,WUHU21623XXSP,2013-06-04 02:09:00,
2013-06-03 21:10:00,84.6,59.6,29.93,North,0,0.0,0.0,43,0.00,,,0.00,WUHU21623XXSP,2013-06-04 02:10:00,
2013-06-03 21:12:00,84.6,59.6,29.93,North,0,0.0,0.0,43,0.00,,,0.00,WUHU21623XXSP,2013-06-04 02:12:00,
2013-06-03 21:14:00,84.6,59.6,29.93,North,0,0.0,0.0,43,0.00,,,0.00,WUHU21623XXSP,2013-06-04 02:14:00,
2013-06-03 21:15:00,84.4,59.4,29.94,North,0,0.0,0.0,43,0.00,,,0.00,WUHU21623XXSP,2013-06-04 02:15:00,
2013-06-03 21:17:00,84.4,60.1,29.94,North,0,0.0,0.0,44,0.00,,,0.00,WUHU21623XXSP,2013-06-04 02:17:00,
2013-06-03 21:19:00,84.4,60.1,29.94,North,0,0.0,0.0,44,0.00,,,0.00,WUHU21623XXSP,2013-06-04 02:19:00,
2013-06-03 21:20:00,84.4,60.1,29.94,North,0,0.0,0.0,44,0.00,,,0.00,WUHU21623XXSP,2013-06-04 02:20:00,
2013-06-03 21:21:00,84.2,59.9,29.94,North,0,0.0,0.0,44,0.00,,,0.00,WUHU21623XXSP,2013-06-04 02:21:00,
2013-06-03 21:23:00,84.0,59.7,29.94,North,0,0.0,0.0,44,0.00,,,0.00,WUHU21623XXSP,2013-06-04 02:23:00,
2013-06-03 21:24:00,84.0,59.7,29.94,North,0,0.0,0.0,44,0.00,,,0.00,WUHU21623XXSP,2013-06-04 02:24:00,
2013-06-03 21:25:00,84.0,60.4,29.94,North,0,0.0,0.0,45,0.00,,,0.00,WUHU21623XXSP,2013-06-04 02:25:00,
2013-06-03 21:26:00,84.0,60.4,29.94,North,0,0.0,0.0,45,0.00,,,0.00,WUHU21623XXSP,2013-06-04 02:26:00,
2013-06-03 21:28:00,84.0,60.4,29.94,North,0,0.0,0.0,45,0.00,,,0.00,WUHU21623XXSP,2013-06-04 02:28:00,
2013-06-03 21:29:00,84.0,60.4,29.94,North,0,0.0,0.0,45,0.00,,,0.00,WUHU21623XXSP,2013-06-04 02:29:00,
2013-06-03 21:30:00,84.0,60.4,29.94,North,0,0.0,0.0,45,0.00,,,0.00,WUHU21623XXSP,2013-06-04 02:30:00,
2013-06-03 21:31:00,84.0,60.4,29.94,North,0,0.0,0.0,45,0.00,,,0.00,WUHU21623XXSP,2013-06-04 02:31:00,
2013-06-03 21:34:00,83.8,60.2,29.94,North,0,0.0,0.0,45,0.00,,,0.00,WUHU21623XXSP,2013-06-04 02:34:00,
2013-06-03 21:35:00,83.8,60.2,29.94,North,0,0.0,0.0,45,0.00,,,0.00,WUHU21623XXSP,2013-06-04 02:35:00,
2013-06-03 21:36:00,83.8,60.8,29.94,North,0,0.0,0.0,46,0.00,,,0.00,WUHU21623XXSP,2013-06-04 02:36:00,
2013-06-03 21:37:00,83.8,60.8,29.94,North,0,0.0,0.0,46,0.00,,,0.00,WUHU21623XXSP,2013-06-04 02:37:00,
2013-06-03 21:39:00,83.7,60.6,29.94,North,0,0.0,0.0,46,0.00,,,0.00,WUHU21623XXSP,2013-06-04 02:39:00,
2013-06-03 21:40:00,83.5,60.5,29.94,North,0,0.0,0.0,46,0.00,,,0.00,WUHU21623XXSP,2013-06-04 02:40:00,
2013-06-03 21:42:00,83.5,60.5,29.94,North,0,0.0,0.0,46,0.00,,,0.00,WUHU21623XXSP,2013-06-04 02:42:00,
2013-06-03 21:44:00,83.5,60.5,29.94,North,0,0.0,0.0,46,0.00,,,0.00,WUHU21623XXSP,2013-06-04 02:44:00,
2013-06-03 21:45:00,83.5,60.5,29.94,North,0,0.0,0.0,46,0.00,,,0.00,WUHU21623XXSP,2013-06-04 02:45:00,
2013-06-03 21:47:00,83.3,60.3,29.94,North,0,0.0,0.0,46,0.00,,,0.00,WUHU21623XXSP,2013-06-04 02:47:00,
2013-06-03 21:49:00,83.3,60.9,29.94,North,0,0.0,0.0,47,0.00,,,0.00,WUHU21623XXSP,2013-06-04 02:49:00,
2013-06-03 21:50:00,83.3,60.9,29.94,North,0,0.0,0.0,47,0.00,,,0.00,WUHU21623XXSP,2013-06-04 02:50:00,
2013-06-03 21:52:00,83.1,60.7,29.94,North,0,0.0,0.0,47,0.00,,,0.00,WUHU21623XXSP,2013-06-04 02:52:00,
2013-06-03 21:54:00,83.1,60.7,29.94,North,0,0.0,0.0,47,0.00,,,0.00,WUHU21623XXSP,2013-06-04 02:54:00,
2013-06-03 21:55:00,82.9,61.2,29.94,North,0,0.0,0.0,48,0.00,,,0.00,WUHU21623XXSP,2013-06-04 02:55:00,
2013-06-03 21:57:00,82.9,61.2,29.94,North,0,0.0,0.0,48,0.00,,,0.00,WUHU21623XXSP,2013-06-04 02:57:00,
2013-06-03 21:59:00,82.8,61.0,29.94,North,0,0.0,0.0,48,0.00,,,0.00,WUHU21623XXSP,2013-06-04 02:59:00,
2013-06-03 22:00:00,82.8,61.0,29.94,North,0,0.0,0.0,48,0.00,,,0.00,WUHU21623XXSP,2013-06-04 03:00:00,
2013-06-03 22:02:00,82.8,61.0,29.94,North,0,0.0,0.0,48,0.00,,,0.00,WUHU21623XXSP,2013-06-04 03:02:00,
2013-06-03 22:05:00,82.6,60.8,29.94,North,0,0.0,0.0,48,0.00,,,0.00,WUHU21623XXSP,2013-06-04 03:05:00,
2013-06-03 22:06:00,82.6,60.8,29.94,North,0,0.0,0.0,48,0.00,,,0.00,WUHU21623XXSP,2013-06-04 03:06:00,
2013-06-03 22:07:00,82.6,60.8,29.94,North,0,0.0,0.0,48,0.00,,,0.00,WUHU21623XXSP,2013-06-04 03:07:00,
2013-06-03 22:10:00,82.4,60.7,29.94,North,0,0.0,0.0,48,0.00,,,0.00,WUHU21623XXSP,2013-06-04 03:10:00,
2013-06-03 22:12:00,82.4,60.7,29.94,North,0,0.0,0.0,48,0.00,,,0.00,WUHU21623XXSP,2013-06-04 03:12:00,
2013-06-03 22:13:00,82.2,60.5,29.94,North,0,0.0,0.0,48,0.00,,,0.00,WUHU21623XXSP,2013-06-04 03:13:00,
2013-06-03 22:15:00,82.2,60.5,29.94,North,0,0.0,0.0,48,0.00,,,0.00,WUHU21623XXSP,2013-06-04 03:15:00,
2013-06-03 22:17:00,82.2,60.5,29.95,North,0,0.0,0.0,48,0.00,,,0.00,WUHU21623XXSP,2013-06-04 03:17:00,
2013-06-03 22:18:00,82.2,60.5,29.95,North,0,0.0,0.0,48,0.00,,,0.00,WUHU21623XXSP,2013-06-04 03:18:00,
2013-06-03 22:20:00,82.2,61.1,29.95,North,0,0.0,0.0,49,0.00,,,0.00,WUHU21623XXSP,2013-06-04 03:20:00,
2013-06-03 22:21:00,82.2,61.1,29.95,North,0,0.0,0.0,49,0.00,,,0.00,WUHU21623XXSP,2013-06-04 03:21:00,
2013-06-03 22:22:00,82.2,61.1,29.95,North,0,0.0,0.0,49,0.00,,,0.00,WUHU21623XXSP,2013-06-04 03:22:00,
2013-06-03 22:23:00,82.0,60.9,29.95,North,0,0.0,0.0,49,0.00,,,0.00,WUHU21623XXSP,2013-06-04 03:23:00,
2013-06-03 22:25:00,82.0,60.9,29.95,North,0,0.0,0.0,49,0.00,,,0.00,WUHU21623XXSP,2013-06-04 03:25:00,
2013-06-03 22:26:00,82.0,60.9,29.95,North,0,0.0,0.0,49,0.00,,,0.00,WUHU21623XXSP,2013-06-04 03:26:00,
2013-06-03 22:27:00,82.0,60.9,29.95,North,0,0.0,0.0,49,0.00,,,0.00,WUHU21623XXSP,2013-06-04 03:27:00,
2013-06-03 22:28:00,82.0,60.9,29.95,North,0,0.0,0.0,49,0.00,,,0.00,WUHU21623XXSP,2013-06-04 03:28:00,
2013-06-03 22:30:00,82.0,60.9,29.95,North,0,0.0,0.0,49,0.00,,,0.00,WUHU21623XXSP,2013-06-04 03:30:00,
2013-06-03 22:31:00,82.0,60.9,29.95,North,0,0.0,0.0,49,0.00,,,0.00,WUHU21623XXSP,2013-06-04 03:31:00,
2013-06-03 22:33:00,81.9,60.8,29.95,North,0,0.0,0.0,49,0.00,,,0.00,WUHU21623XXSP,2013-06-04 03:33:00,
2013-06-03 22:35:00,81.7,60.6,29.95,North,0,0.0,0.0,49,0.00,,,0.00,WUHU21623XXSP,2013-06-04 03:35:00,
2013-06-03 22:36:00,81.7,60.6,29.95,North,0,0.0,0.0,49,0.00,,,0.00,WUHU21623XXSP,2013-06-04 03:36:00,
2013-06-03 22:38:00,81.7,60.6,29.95,North,0,0.0,0.0,49,0.00,,,0.00,WUHU21623XXSP,2013-06-04 03:38:00,
2013-06-03 22:40:00,81.5,61.1,29.95,North,0,0.0,0.0,50,0.00,,,0.00,WUHU21623XXSP,2013-06-04 03:40:00,
2013-06-03 22:42:00,81.5,61.1,29.95,North,0,0.0,0.0,50,0.00,,,0.00,WUHU21623XXSP,2013-06-04 03:42:00,
2013-06-03 22:43:00,81.5,61.1,29.95,North,0,0.0,0.0,50,0.00,,,0.00,WUHU21623XXSP,2013-06-04 03:43:00,
2013-06-03 22:46:00,81.5,61.1,29.95,North,0,0.0,0.0,50,0.00,,,0.00,WUHU21623XXSP,2013-06-04 03:46:00,
2013-06-03 22:48:00,81.3,60.9,29.95,North,0,0.0,0.0,50,0.00,,,0.00,WUHU21623XXSP,2013-06-04 03:48:00,
2013-06-03 22:49:00,81.3,60.9,29.95,North,0,0.0,0.0,50,0.00,,,0.00,WUHU21623XXSP,2013-06-04 03:49:00,
2013-06-03 22:51:00,81.3,60.9,29.96,North,0,0.0,0.0,50,0.00,,,0.00,WUHU21623XXSP,2013-06-04 03:51:00,
2013-06-03 22:53:00,81.3,60.9,29.95,North,0,0.0,0.0,50,0.00,,,0.00,WUHU21623XXSP,2013-06-04 03:53:00,
2013-06-03 22:54:00,81.3,60.9,29.95,North,0,0.0,0.0,50,0.00,,,0.00,WUHU21623XXSP,2013-06-04 03:54:00,
2013-06-03 22:55:00,81.1,60.7,29.95,North,0,0.0,0.0,50,0.00,,,0.00,WUHU21623XXSP,2013-06-04 03:55:00,
2013-06-03 22:57:00,81.1,60.7,29.95,North,0,0.0,0.0,50,0.00,,,0.00,WUHU21623XXSP,2013-06-04 03:57:00,
2013-06-03 22:58:00,81.1,60.7,29.95,North,0,0.0,0.0,50,0.00,,,0.00,WUHU21623XXSP,2013-06-04 03:58:00,
2013-06-03 22:59:00,81.1,60.7,29.96,North,0,0.0,0.0,50,0.00,,,0.00,WUHU21623XXSP,2013-06-04 03:59:00,
2013-06-03 23:00:00,81.1,60.7,29.96,North,0,0.0,0.0,50,0.00,,,0.00,WUHU21623XXSP,2013-06-04 04:00:00,
2013-06-03 23:01:00,81.1,60.7,29.96,North,0,0.0,0.0,50,0.00,,,0.00,WUHU21623XXSP,2013-06-04 04:01:00,
2013-06-03 23:02:00,81.1,60.7,29.95,North,0,0.0,0.0,50,0.00,,,0.00,WUHU21623XXSP,2013-06-04 04:02:00,
2013-06-03 23:03:00,81.1,60.7,29.95,North,0,0.0,0.0,50,0.00,,,0.00,WUHU21623XXSP,2013-06-04 04:03:00,
2013-06-03 23:06:00,81.1,61.3,29.96,North,0,0.0,0.0,51,0.00,,,0.00,WUHU21623XXSP,2013-06-04 04:06:00,
2013-06-03 23:07:00,81.1,61.3,29.96,North,0,0.0,0.0,51,0.00,,,0.00,WUHU21623XXSP,2013-06-04 04:07:00,
2013-06-03 23:08:00,81.0,61.1,29.96,North,0,0.0,0.0,51,0.00,,,0.00,WUHU21623XXSP,2013-06-04 04:08:00,
2013-06-03 23:12:00,81.0,61.1,29.96,North,0,0.0,0.0,51,0.00,,,0.00,WUHU21623XXSP,2013-06-04 04:12:00,
2013-06-03 23:13:00,80.8,60.9,29.95,North,0,0.0,0.0,51,0.00,,,0.00,WUHU21623XXSP,2013-06-04 04:13:00,
2013-06-03 23:17:00,80.8,60.9,29.95,North,0,0.0,0.0,51,0.00,,,0.00,WUHU21623XXSP,2013-06-04 04:17:00,
2013-06-03 23:18:00,80.8,60.9,29.95,North,0,0.0,0.0,51,0.00,,,0.00,WUHU21623XXSP,2013-06-04 04:18:00,
2013-06-03 23:22:00,80.6,60.8,29.95,North,0,0.0,0.0,51,0.00,,,0.00,WUHU21623XXSP,2013-06-04 04:22:00,
2013-06-03 23:23:00,80.4,60.6,29.95,North,0,0.0,0.0,51,0.00,,,0.00,WUHU21623XXSP,2013-06-04 04:23:00,
2013-06-03 23:24:00,80.4,60.6,29.95,North,0,0.0,0.0,51,0.00,,,0.00,WUHU21623XXSP,2013-06-04 04:24:00,
2013-06-03 23:27:00,80.4,61.1,29.96,North,0,0.0,0.0,52,0.00,,,0.00,WUHU21623XXSP,2013-06-04 04:27:00,
2013-06-03 23:28:00,80.4,61.1,29.96,North,0,0.0,0.0,52,0.00,,,0.00,WUHU21623XXSP,2013-06-04 04:28:00,
2013-06-03 23:29:00,80.4,61.1,29.96,North,0,0.0,0.0,52,0.00,,,0.00,WUHU21623XXSP,2013-06-04 04:29:00,
2013-06-03 23:32:00,80.4,61.1,29.95,North,0,0.0,0.0,52,0.00,,,0.00,WUHU21623XXSP,2013-06-04 04:32:00,
2013-06-03 23:33:00,80.4,61.1,29.95,North,0,0.0,0.0,52,0.00,,,0.00,WUHU21623XXSP,2013-06-04 04:33:00,
2013-06-03 23:34:00,80.2,61.0,29.96,North,0,0.0,0.0,52,0.00,,,0.00,WUHU21623XXSP,2013-06-04 04:34:00,
2013-06-03 23:37:00,80.2,61.0,29.96,North,0,0.0,0.0,52,0.00,,,0.00,WUHU21623XXSP,2013-06-04 04:37:00,
2013-06-03 23:38:00,80.2,61.0,29.96,North,0,0.0,0.0,52,0.00,,,0.00,WUHU21623XXSP,2013-06-04 04:38:00,
2013-06-03 23:39:00,80.2,61.0,29.96,North,0,0.0,0.0,52,0.00,,,0.00,WUHU21623XXSP,2013-06-04 04:39:00,
2013-06-03 23:43:00,80.2,61.0,29.96,North,0,0.0,0.0,52,0.00,,,0.00,WUHU21623XXSP,2013-06-04 04:43:00,
2013-06-03 23:44:00,80.2,61.0,29.96,North,0,0.0,0.0,52,0.00,,,0.00,WUHU21623XXSP,2013-06-04 04:44:00,
2013-06-03 23:48:00,79.9,60.7,29.96,North,0,0.0,0.0,52,0.00,,,0.00,WUHU21623XXSP,2013-06-04 04:48:00,
2013-06-03 23:49:00,79.9,60.7,29.96,North,0,0.0,0.0,52,0.00,,,0.00,WUHU21623XXSP,2013-06-04 04:49:00,
2013-06-03 23:50:00,79.9,60.7,29.96,North,0,0.0,0.0,52,0.00,,,0.00,WUHU21623XXSP,2013-06-04 04:50:00,
2013-06-03 23:53:00,79.9,61.2,29.96,North,0,0.0,0.0,53,0.00,,,0.00,WUHU21623XXSP,2013-06-04 04:53:00,
2013-06-03 23:54:00,79.9,61.2,29.96,North,0,0.0,0.0,53,0.00,,,0.00,WUHU21623XXSP,2013-06-04 04:54:00,
2013-06-03 23:55:00,79.7,61.0,29.96,North,0,0.0,0.0,53,0.00,,,0.00,WUHU21623XXSP,2013-06-04 04:55:00,
2013-06-03 23:58:00,79.7,61.0,29.96,North,0,0.0,0.0,53,0.00,,,0.00,WUHU21623XXSP,2013-06-04 04:58:00,
2013-06-03 23:59:00,79.7,61.0,29.96,North,0,0.0,0.0,53,0.00,,,0.00,WUHU21623XXSP,2013-06-04 04:59:00,